Time,TemperatureF,DewpointF,PressureIn,WindDirection,WindDirectionDegrees,WindSpeedMPH,WindSpeedGustMPH,Humidity,HourlyPrecipIn,Conditions,Clouds,dailyrainin,SolarRadiationWatts/m^2,SoftwareType,DateUTC
2013-08-14 00:00:00,65.2,53.6,29.89,NNW,328,3.0,3.0,66,0.00,,,0.04,0,Wunderground v.1.15,2013-08-14 04:00:00,
2013-08-14 00:01:00,65.1,53.5,29.89,NNW,331,3.0,3.0,66,0.00,,,0.04,0,Wunderground v.1.15,2013-08-14 04:01:00,
2013-08-14 00:02:00,65.1,53.5,29.89,WNW,294,2.0,3.0,66,0.00,,,0.04,0,Wunderground v.1.15,2013-08-14 04:02:00,
2013-08-14 00:04:00,65.0,53.8,29.89,WNW,294,2.0,3.0,67,0.00,,,0.04,0,Wunderground v.1.15,2013-08-14 04:04:00,
2013-08-14 00:06:00,64.9,53.7,29.89,WNW,288,2.0,3.0,67,0.00,,,0.04,0,Wunderground v.1.15,2013-08-14 04:06:00,
2013-08-14 00:08:00,64.9,53.7,29.89,WNW,290,1.0,4.0,67,0.00,,,0.04,0,Wunderground v.1.15,2013-08-14 04:08:00,
2013-08-14 00:11:00,64.7,53.5,29.89,NW,322,2.0,4.0,67,0.00,,,0.04,0,Wunderground v.1.15,2013-08-14 04:11:00,
2013-08-14 00:13:00,64.6,53.4,29.89,NW,314,2.0,4.0,67,0.00,,,0.04,0,Wunderground v.1.15,2013-08-14 04:13:00,
2013-08-14 00:14:00,64.6,53.4,29.89,NW,323,2.0,4.0,67,0.00,,,0.04,0,Wunderground v.1.15,2013-08-14 04:14:00,
2013-08-14 00:16:00,64.4,53.2,29.90,NNW,330,3.0,4.0,67,0.00,,,0.04,0,Wunderground v.1.15,2013-08-14 04:16:00,
2013-08-14 00:17:00,64.4,53.2,29.90,North,355,3.0,5.0,67,0.00,,,0.04,0,Wunderground v.1.15,2013-08-14 04:17:00,
2013-08-14 00:20:00,64.3,53.1,29.90,WNW,296,3.0,3.0,67,0.00,,,0.04,0,Wunderground v.1.15,2013-08-14 04:20:00,
2013-08-14 00:21:00,64.2,53.0,29.90,NNE,26,3.0,7.0,67,0.00,,,0.04,0,Wunderground v.1.15,2013-08-14 04:21:00,
2013-08-14 00:22:00,64.2,53.0,29.89,North,355,3.0,7.0,67,0.00,,,0.04,0,Wunderground v.1.15,2013-08-14 04:22:00,
2013-08-14 00:24:00,64.0,52.8,29.89,North,9,4.0,7.0,67,0.00,,,0.04,0,Wunderground v.1.15,2013-08-14 04:24:00,
2013-08-14 00:25:00,64.0,52.8,29.90,WNW,300,4.0,7.0,67,0.00,,,0.04,0,Wunderground v.1.15,2013-08-14 04:25:00,
2013-08-14 00:28:00,63.8,52.6,29.90,West,281,4.0,7.0,67,0.00,,,0.04,0,Wunderground v.1.15,2013-08-14 04:28:00,
2013-08-14 00:29:00,63.7,52.5,29.90,WNW,294,3.0,7.0,67,0.00,,,0.04,0,Wunderground v.1.15,2013-08-14 04:29:00,
2013-08-14 00:31:00,63.6,52.4,29.90,NW,313,4.0,5.0,67,0.00,,,0.04,0,Wunderground v.1.15,2013-08-14 04:31:00,
2013-08-14 00:34:00,63.5,52.3,29.90,NW,304,4.0,6.0,67,0.00,,,0.04,0,Wunderground v.1.15,2013-08-14 04:34:00,
2013-08-14 00:35:00,63.5,52.3,29.89,NW,326,4.0,6.0,67,0.00,,,0.04,0,Wunderground v.1.15,2013-08-14 04:35:00,
2013-08-14 00:37:00,63.4,51.8,29.90,NW,325,4.0,7.0,66,0.00,,,0.04,0,Wunderground v.1.15,2013-08-14 04:37:00,
2013-08-14 00:40:00,63.3,51.7,29.90,West,265,4.0,4.0,66,0.00,,,0.04,0,Wunderground v.1.15,2013-08-14 04:40:00,
2013-08-14 00:41:00,63.3,51.7,29.90,NNW,342,4.0,7.0,66,0.00,,,0.04,0,Wunderground v.1.15,2013-08-14 04:41:00,
2013-08-14 00:43:00,63.2,51.6,29.90,WNW,294,5.0,7.0,66,0.00,,,0.04,0,Wunderground v.1.15,2013-08-14 04:43:00,
2013-08-14 00:44:00,63.2,51.6,29.90,WNW,285,5.0,7.0,66,0.00,,,0.04,0,Wunderground v.1.15,2013-08-14 04:44:00,
2013-08-14 00:45:00,63.2,51.6,29.90,WNW,291,5.0,7.0,66,0.00,,,0.04,0,Wunderground v.1.15,2013-08-14 04:45:00,
2013-08-14 00:49:00,63.1,51.6,29.90,West,268,4.0,7.0,66,0.00,,,0.04,0,Wunderground v.1.15,2013-08-14 04:49:00,
2013-08-14 00:50:00,63.1,51.6,29.90,WNW,297,4.0,5.0,66,0.00,,,0.04,0,Wunderground v.1.15,2013-08-14 04:50:00,
2013-08-14 00:51:00,63.0,51.5,29.90,ESE,119,4.0,5.0,66,0.00,,,0.04,0,Wunderground v.1.15,2013-08-14 04:51:00,
2013-08-14 00:54:00,63.0,51.0,29.90,NW,321,4.0,6.0,65,0.00,,,0.04,0,Wunderground v.1.15,2013-08-14 04:54:00,
2013-08-14 00:56:00,63.0,51.0,29.90,NNW,333,4.0,6.0,65,0.00,,,0.04,0,Wunderground v.1.15,2013-08-14 04:56:00,
2013-08-14 00:58:00,62.9,51.4,29.90,NW,321,4.0,6.0,66,0.00,,,0.04,0,Wunderground v.1.15,2013-08-14 04:58:00,
2013-08-14 01:00:00,62.9,51.4,29.90,WNW,284,3.0,3.0,66,0.00,,,0.04,0,Wunderground v.1.15,2013-08-14 05:00:00,
2013-08-14 01:01:00,62.9,51.0,29.90,WNW,292,3.0,3.0,65,0.00,,,0.04,0,Wunderground v.1.15,2013-08-14 05:01:00,
2013-08-14 01:03:00,62.8,50.9,29.90,NW,311,2.0,4.0,65,0.00,,,0.04,0,Wunderground v.1.15,2013-08-14 05:03:00,
2013-08-14 01:06:00,62.7,50.3,29.91,NW,319,2.0,4.0,64,0.00,,,0.04,0,Wunderground v.1.15,2013-08-14 05:06:00,
2013-08-14 01:08:00,62.7,50.3,29.91,North,360,2.0,4.0,64,0.00,,,0.04,0,Wunderground v.1.15,2013-08-14 05:08:00,
2013-08-14 01:10:00,62.7,50.3,29.91,NW,313,2.0,2.0,64,0.00,,,0.04,0,Wunderground v.1.15,2013-08-14 05:10:00,
2013-08-14 01:12:00,62.6,50.2,29.91,WSW,257,2.0,2.0,64,0.00,,,0.04,0,Wunderground v.1.15,2013-08-14 05:12:00,
2013-08-14 01:15:00,62.5,49.7,29.91,WSW,257,1.0,2.0,63,0.00,,,0.04,0,Wunderground v.1.15,2013-08-14 05:15:00,
2013-08-14 01:18:00,62.4,49.2,29.91,NNW,331,1.0,4.0,62,0.00,,,0.04,0,Wunderground v.1.15,2013-08-14 05:18:00,
2013-08-14 01:19:00,62.4,49.6,29.91,NW,306,1.0,4.0,63,0.00,,,0.04,0,Wunderground v.1.15,2013-08-14 05:19:00,
2013-08-14 01:20:00,62.3,49.5,29.91,NW,305,1.0,1.0,63,0.00,,,0.04,0,Wunderground v.1.15,2013-08-14 05:20:00,
2013-08-14 01:24:00,62.2,49.4,29.91,WNW,302,2.0,2.0,63,0.00,,,0.04,0,Wunderground v.1.15,2013-08-14 05:24:00,
2013-08-14 01:26:00,62.0,49.7,29.91,WNW,302,2.0,2.0,64,0.00,,,0.04,0,Wunderground v.1.15,2013-08-14 05:26:00,
2013-08-14 01:27:00,62.0,49.7,29.91,WSW,252,2.0,2.0,64,0.00,,,0.04,0,Wunderground v.1.15,2013-08-14 05:27:00,
2013-08-14 01:30:00,61.8,49.5,29.91,WNW,292,1.0,2.0,64,0.00,,,0.04,0,Wunderground v.1.15,2013-08-14 05:30:00,
2013-08-14 01:31:00,61.8,49.1,29.91,West,277,1.0,2.0,63,0.00,,,0.04,0,Wunderground v.1.15,2013-08-14 05:31:00,
2013-08-14 01:37:00,61.6,48.9,29.91,WNW,298,1.0,3.0,63,0.00,,,0.04,0,Wunderground v.1.15,2013-08-14 05:37:00,
2013-08-14 01:38:00,61.5,49.2,29.91,WNW,298,1.0,3.0,64,0.00,,,0.04,0,Wunderground v.1.15,2013-08-14 05:38:00,
2013-08-14 01:39:00,61.5,49.6,29.91,WNW,298,1.0,3.0,65,0.00,,,0.04,0,Wunderground v.1.15,2013-08-14 05:39:00,
2013-08-14 01:42:00,61.3,49.4,29.91,WNW,298,1.0,2.0,65,0.00,,,0.04,0,Wunderground v.1.15,2013-08-14 05:42:00,
2013-08-14 01:44:00,61.3,49.4,29.91,WNW,298,1.0,2.0,65,0.00,,,0.04,0,Wunderground v.1.15,2013-08-14 05:44:00,
2013-08-14 01:45:00,61.2,49.3,29.91,WNW,298,1.0,2.0,65,0.00,,,0.04,0,Wunderground v.1.15,2013-08-14 05:45:00,
2013-08-14 01:47:00,61.1,49.2,29.91,WNW,298,1.0,2.0,65,0.00,,,0.04,0,Wunderground v.1.15,2013-08-14 05:47:00,
2013-08-14 01:48:00,61.1,49.2,29.91,WNW,298,1.0,2.0,65,0.00,,,0.04,0,Wunderground v.1.15,2013-08-14 05:48:00,
2013-08-14 01:50:00,61.0,48.7,29.91,WNW,298,1.0,1.0,64,0.00,,,0.04,0,Wunderground v.1.15,2013-08-14 05:50:00,
2013-08-14 01:51:00,60.9,48.6,29.91,WNW,298,0.0,2.0,64,0.00,,,0.04,0,Wunderground v.1.15,2013-08-14 05:51:00,
2013-08-14 01:53:00,60.9,49.1,29.92,WNW,298,0.0,2.0,65,0.00,,,0.04,0,Wunderground v.1.15,2013-08-14 05:53:00,
2013-08-14 01:55:00,60.8,49.0,29.91,WNW,298,0.0,2.0,65,0.00,,,0.04,0,Wunderground v.1.15,2013-08-14 05:55:00,
2013-08-14 01:58:00,60.7,48.9,29.91,WNW,298,0.0,2.0,65,0.00,,,0.04,0,Wunderground v.1.15,2013-08-14 05:58:00,
2013-08-14 01:59:00,60.7,49.3,29.91,WNW,298,0.0,2.0,66,0.00,,,0.04,0,Wunderground v.1.15,2013-08-14 05:59:00,
2013-08-14 02:00:00,60.7,48.9,29.91,WNW,298,0.0,1.0,65,0.00,,,0.04,0,Wunderground v.1.15,2013-08-14 06:00:00,
2013-08-14 02:03:00,60.6,48.8,29.91,North,355,0.0,2.0,65,0.00,,,0.04,0,Wunderground v.1.15,2013-08-14 06:03:00,
2013-08-14 02:04:00,60.5,48.7,29.91,NNW,336,1.0,2.0,65,0.00,,,0.04,0,Wunderground v.1.15,2013-08-14 06:04:00,
2013-08-14 02:05:00,60.5,49.1,29.91,NW,321,1.0,2.0,66,0.00,,,0.04,0,Wunderground v.1.15,2013-08-14 06:05:00,
2013-08-14 02:09:00,60.3,48.5,29.91,WNW,302,1.0,3.0,65,0.00,,,0.04,0,Wunderground v.1.15,2013-08-14 06:09:00,
2013-08-14 02:10:00,60.3,48.5,29.91,WNW,298,1.0,1.0,65,0.00,,,0.04,0,Wunderground v.1.15,2013-08-14 06:10:00,
2013-08-14 02:13:00,60.2,48.8,29.91,NW,319,2.0,3.0,66,0.00,,,0.04,0,Wunderground v.1.15,2013-08-14 06:13:00,
2013-08-14 02:14:00,60.2,48.8,29.91,NW,319,2.0,3.0,66,0.00,,,0.04,0,Wunderground v.1.15,2013-08-14 06:14:00,
2013-08-14 02:17:00,60.1,49.1,29.92,NNW,333,2.0,3.0,67,0.00,,,0.04,0,Wunderground v.1.15,2013-08-14 06:17:00,
2013-08-14 02:18:00,60.0,48.6,29.92,North,355,2.0,3.0,66,0.00,,,0.04,0,Wunderground v.1.15,2013-08-14 06:18:00,
2013-08-14 02:19:00,60.0,49.0,29.92,NNW,335,1.0,3.0,67,0.00,,,0.04,0,Wunderground v.1.15,2013-08-14 06:19:00,
2013-08-14 02:20:00,60.0,49.0,29.92,NW,323,1.0,1.0,67,0.00,,,0.04,0,Wunderground v.1.15,2013-08-14 06:20:00,
2013-08-14 02:22:00,59.9,48.9,29.92,NW,323,1.0,1.0,67,0.00,,,0.04,0,Wunderground v.1.15,2013-08-14 06:22:00,
2013-08-14 02:25:00,59.8,48.8,29.92,NNW,345,1.0,2.0,67,0.00,,,0.04,0,Wunderground v.1.15,2013-08-14 06:25:00,
2013-08-14 02:26:00,59.8,48.8,29.92,NNW,346,1.0,2.0,67,0.00,,,0.04,0,Wunderground v.1.15,2013-08-14 06:26:00,
2013-08-14 02:29:00,59.8,48.8,29.92,NNW,340,1.0,2.0,67,0.00,,,0.04,0,Wunderground v.1.15,2013-08-14 06:29:00,
2013-08-14 02:31:00,59.7,49.1,29.92,NNW,340,1.0,1.0,68,0.00,,,0.04,0,Wunderground v.1.15,2013-08-14 06:31:00,
2013-08-14 02:32:00,59.7,49.1,29.92,NNW,345,1.0,1.0,68,0.00,,,0.04,0,Wunderground v.1.15,2013-08-14 06:32:00,
2013-08-14 02:33:00,59.7,48.7,29.92,NNW,344,1.0,1.0,67,0.00,,,0.04,0,Wunderground v.1.15,2013-08-14 06:33:00,
2013-08-14 02:36:00,59.5,49.3,29.92,NNW,332,1.0,1.0,69,0.00,,,0.04,0,Wunderground v.1.15,2013-08-14 06:36:00,
2013-08-14 02:38:00,59.5,49.3,29.92,NW,323,1.0,1.0,69,0.00,,,0.04,0,Wunderground v.1.15,2013-08-14 06:38:00,
2013-08-14 02:40:00,59.5,49.3,29.92,NW,323,1.0,1.0,69,0.00,,,0.04,0,Wunderground v.1.15,2013-08-14 06:40:00,
2013-08-14 02:41:00,59.4,49.2,29.92,NNW,340,1.0,2.0,69,0.00,,,0.04,0,Wunderground v.1.15,2013-08-14 06:41:00,
2013-08-14 02:43:00,59.3,49.5,29.92,NW,317,1.0,2.0,70,0.00,,,0.04,0,Wunderground v.1.15,2013-08-14 06:43:00,
2013-08-14 02:46:00,59.3,49.5,29.92,North,350,1.0,4.0,70,0.00,,,0.04,0,Wunderground v.1.15,2013-08-14 06:46:00,
2013-08-14 02:47:00,59.3,49.5,29.92,NW,318,1.0,4.0,70,0.00,,,0.04,0,Wunderground v.1.15,2013-08-14 06:47:00,
2013-08-14 02:48:00,59.3,49.5,29.92,NNW,328,2.0,4.0,70,0.00,,,0.04,0,Wunderground v.1.15,2013-08-14 06:48:00,
2013-08-14 02:51:00,59.3,49.9,29.92,NW,304,2.0,2.0,71,0.00,,,0.04,0,Wunderground v.1.15,2013-08-14 06:51:00,
2013-08-14 02:52:00,59.2,49.8,29.92,NW,304,2.0,2.0,71,0.00,,,0.04,0,Wunderground v.1.15,2013-08-14 06:52:00,
2013-08-14 02:55:00,59.2,49.8,29.92,NNW,332,2.0,2.0,71,0.00,,,0.04,0,Wunderground v.1.15,2013-08-14 06:55:00,
2013-08-14 02:56:00,59.1,49.7,29.92,NW,322,2.0,2.0,71,0.00,,,0.04,0,Wunderground v.1.15,2013-08-14 06:56:00,
2013-08-14 02:58:00,59.1,49.7,29.92,NW,310,1.0,2.0,71,0.00,,,0.04,0,Wunderground v.1.15,2013-08-14 06:58:00,
2013-08-14 03:02:00,59.0,49.6,29.92,NW,315,1.0,3.0,71,0.00,,,0.04,0,Wunderground v.1.15,2013-08-14 07:02:00,
2013-08-14 03:04:00,58.9,49.5,29.92,NW,313,1.0,3.0,71,0.00,,,0.04,0,Wunderground v.1.15,2013-08-14 07:04:00,
2013-08-14 03:05:00,58.9,49.9,29.92,NNW,336,1.0,3.0,72,0.00,,,0.04,0,Wunderground v.1.15,2013-08-14 07:05:00,
2013-08-14 03:08:00,58.8,49.8,29.92,NW,306,1.0,3.0,72,0.00,,,0.04,0,Wunderground v.1.15,2013-08-14 07:08:00,
2013-08-14 03:09:00,58.8,49.8,29.92,NW,307,1.0,3.0,72,0.00,,,0.04,0,Wunderground v.1.15,2013-08-14 07:09:00,
2013-08-14 03:10:00,58.8,49.8,29.92,North,355,1.0,2.0,72,0.00,,,0.04,0,Wunderground v.1.15,2013-08-14 07:10:00,
2013-08-14 03:11:00,58.7,49.7,29.92,WNW,302,1.0,2.0,72,0.00,,,0.04,0,Wunderground v.1.15,2013-08-14 07:11:00,
2013-08-14 03:15:00,58.6,49.6,29.92,NW,312,2.0,2.0,72,0.00,,,0.04,0,Wunderground v.1.15,2013-08-14 07:15:00,
2013-08-14 03:16:00,58.6,49.2,29.92,NW,310,2.0,2.0,71,0.00,,,0.04,0,Wunderground v.1.15,2013-08-14 07:16:00,
2013-08-14 03:17:00,58.5,49.5,29.92,WNW,292,2.0,2.0,72,0.00,,,0.04,0,Wunderground v.1.15,2013-08-14 07:17:00,
2013-08-14 03:18:00,58.5,49.5,29.92,WNW,292,2.0,2.0,72,0.00,,,0.04,0,Wunderground v.1.15,2013-08-14 07:18:00,
2013-08-14 03:23:00,58.4,49.4,29.92,NW,322,1.0,2.0,72,0.00,,,0.04,0,Wunderground v.1.15,2013-08-14 07:23:00,
2013-08-14 03:24:00,58.3,49.3,29.92,NW,322,1.0,2.0,72,0.00,,,0.04,0,Wunderground v.1.15,2013-08-14 07:24:00,
2013-08-14 03:28:00,58.2,49.2,29.92,West,278,1.0,2.0,72,0.00,,,0.04,0,Wunderground v.1.15,2013-08-14 07:28:00,
2013-08-14 03:30:00,58.1,49.1,29.92,WSW,254,1.0,1.0,72,0.00,,,0.04,0,Wunderground v.1.15,2013-08-14 07:30:00,
2013-08-14 03:32:00,58.1,49.1,29.92,NW,311,1.0,2.0,72,0.00,,,0.04,0,Wunderground v.1.15,2013-08-14 07:32:00,
2013-08-14 03:33:00,58.0,49.0,29.92,NW,311,1.0,2.0,72,0.00,,,0.04,0,Wunderground v.1.15,2013-08-14 07:33:00,
2013-08-14 03:37:00,57.9,49.3,29.92,NW,311,1.0,2.0,73,0.00,,,0.04,0,Wunderground v.1.15,2013-08-14 07:37:00,
2013-08-14 03:38:00,57.9,49.3,29.92,NW,312,1.0,2.0,73,0.00,,,0.04,0,Wunderground v.1.15,2013-08-14 07:38:00,
2013-08-14 03:43:00,57.7,49.1,29.92,SSW,213,0.0,2.0,73,0.00,,,0.04,0,Wunderground v.1.15,2013-08-14 07:43:00,
2013-08-14 03:45:00,57.6,49.0,29.92,SSW,213,0.0,2.0,73,0.00,,,0.04,0,Wunderground v.1.15,2013-08-14 07:45:00,
2013-08-14 03:50:00,57.5,48.9,29.92,WNW,286,0.0,2.0,73,0.00,,,0.04,0,Wunderground v.1.15,2013-08-14 07:50:00,
2013-08-14 03:51:00,57.5,48.9,29.92,WNW,286,0.0,2.0,73,0.00,,,0.04,0,Wunderground v.1.15,2013-08-14 07:51:00,
2013-08-14 03:52:00,57.5,49.3,29.92,WNW,286,0.0,2.0,74,0.00,,,0.04,0,Wunderground v.1.15,2013-08-14 07:52:00,
2013-08-14 03:53:00,57.4,49.2,29.92,WNW,286,1.0,2.0,74,0.00,,,0.04,0,Wunderground v.1.15,2013-08-14 07:53:00,
2013-08-14 03:57:00,57.0,49.2,29.92,NW,309,1.0,4.0,75,0.00,,,0.04,0,Wunderground v.1.15,2013-08-14 07:57:00,
2013-08-14 03:58:00,56.9,49.1,29.92,NW,305,1.0,4.0,75,0.00,,,0.04,0,Wunderground v.1.15,2013-08-14 07:58:00,
2013-08-14 03:59:00,56.8,49.0,29.92,NW,305,1.0,4.0,75,0.00,,,0.04,0,Wunderground v.1.15,2013-08-14 07:59:00,
2013-08-14 04:01:00,56.7,48.9,29.92,NW,313,1.0,2.0,75,0.00,,,0.04,0,Wunderground v.1.15,2013-08-14 08:01:00,
2013-08-14 04:03:00,56.6,48.8,29.92,NW,313,1.0,2.0,75,0.00,,,0.04,0,Wunderground v.1.15,2013-08-14 08:03:00,
2013-08-14 04:04:00,56.6,48.8,29.92,WNW,299,1.0,2.0,75,0.00,,,0.04,0,Wunderground v.1.15,2013-08-14 08:04:00,
2013-08-14 04:06:00,56.5,48.7,29.92,West,281,1.0,2.0,75,0.00,,,0.04,0,Wunderground v.1.15,2013-08-14 08:06:00,
2013-08-14 04:07:00,56.5,48.7,29.92,WNW,303,1.0,3.0,75,0.00,,,0.04,0,Wunderground v.1.15,2013-08-14 08:07:00,
2013-08-14 04:10:00,56.4,48.6,29.92,WNW,297,1.0,2.0,75,0.00,,,0.04,0,Wunderground v.1.15,2013-08-14 08:10:00,
2013-08-14 04:13:00,56.3,48.5,29.92,WNW,299,1.0,2.0,75,0.00,,,0.04,0,Wunderground v.1.15,2013-08-14 08:13:00,
2013-08-14 04:14:00,56.3,48.5,29.92,WNW,293,1.0,4.0,75,0.00,,,0.04,0,Wunderground v.1.15,2013-08-14 08:14:00,
2013-08-14 04:16:00,56.2,48.4,29.92,WNW,303,2.0,4.0,75,0.00,,,0.04,0,Wunderground v.1.15,2013-08-14 08:16:00,
2013-08-14 04:20:00,56.2,48.4,29.92,NW,311,2.0,2.0,75,0.00,,,0.04,0,Wunderground v.1.15,2013-08-14 08:20:00,
2013-08-14 04:21:00,56.2,48.4,29.92,WNW,295,2.0,2.0,75,0.00,,,0.04,0,Wunderground v.1.15,2013-08-14 08:21:00,
2013-08-14 04:22:00,56.2,48.4,29.92,WNW,296,2.0,2.0,75,0.00,,,0.04,0,Wunderground v.1.15,2013-08-14 08:22:00,
2013-08-14 04:23:00,56.2,48.4,29.92,WNW,299,2.0,3.0,75,0.00,,,0.04,0,Wunderground v.1.15,2013-08-14 08:23:00,
2013-08-14 04:25:00,56.2,48.4,29.92,NW,319,2.0,3.0,75,0.00,,,0.04,0,Wunderground v.1.15,2013-08-14 08:25:00,
2013-08-14 04:27:00,56.1,48.3,29.92,West,281,2.0,4.0,75,0.00,,,0.04,0,Wunderground v.1.15,2013-08-14 08:27:00,
2013-08-14 04:28:00,56.1,48.3,29.92,WNW,297,2.0,4.0,75,0.00,,,0.04,0,Wunderground v.1.15,2013-08-14 08:28:00,
2013-08-14 04:31:00,56.1,48.3,29.92,West,273,2.0,2.0,75,0.00,,,0.04,0,Wunderground v.1.15,2013-08-14 08:31:00,
2013-08-14 04:32:00,56.0,48.2,29.92,West,264,2.0,4.0,75,0.00,,,0.04,0,Wunderground v.1.15,2013-08-14 08:32:00,
2013-08-14 04:35:00,56.0,47.8,29.92,West,275,2.0,4.0,74,0.00,,,0.04,0,Wunderground v.1.15,2013-08-14 08:35:00,
2013-08-14 04:37:00,56.0,47.8,29.92,WSW,254,2.0,4.0,74,0.00,,,0.04,0,Wunderground v.1.15,2013-08-14 08:37:00,
2013-08-14 04:39:00,56.0,47.8,29.92,NW,315,3.0,5.0,74,0.00,,,0.04,0,Wunderground v.1.15,2013-08-14 08:39:00,
2013-08-14 04:45:00,55.9,48.1,29.92,NW,306,2.0,4.0,75,0.00,,,0.04,0,Wunderground v.1.15,2013-08-14 08:45:00,
2013-08-14 04:48:00,55.9,48.1,29.92,West,272,2.0,2.0,75,0.00,,,0.04,0,Wunderground v.1.15,2013-08-14 08:48:00,
2013-08-14 04:49:00,55.9,48.1,29.92,NW,308,2.0,2.0,75,0.00,,,0.04,0,Wunderground v.1.15,2013-08-14 08:49:00,
2013-08-14 04:50:00,55.8,47.6,29.92,West,280,2.0,2.0,74,0.00,,,0.04,0,Wunderground v.1.15,2013-08-14 08:50:00,
2013-08-14 04:51:00,55.8,47.6,29.92,NW,311,2.0,3.0,74,0.00,,,0.04,0,Wunderground v.1.15,2013-08-14 08:51:00,
2013-08-14 04:54:00,55.8,47.6,29.92,NW,306,2.0,4.0,74,0.00,,,0.04,0,Wunderground v.1.15,2013-08-14 08:54:00,
2013-08-14 04:55:00,55.8,47.6,29.92,NNW,333,2.0,4.0,74,0.00,,,0.04,0,Wunderground v.1.15,2013-08-14 08:55:00,
2013-08-14 04:58:00,55.8,47.3,29.92,NW,321,2.0,2.0,73,0.00,,,0.04,0,Wunderground v.1.15,2013-08-14 08:58:00,
2013-08-14 05:00:00,55.8,47.6,29.93,WNW,290,2.0,2.0,74,0.00,,,0.04,0,Wunderground v.1.15,2013-08-14 09:00:00,
2013-08-14 05:01:00,55.7,47.5,29.93,WNW,290,2.0,4.0,74,0.00,,,0.04,0,Wunderground v.1.15,2013-08-14 09:01:00,
2013-08-14 05:06:00,55.7,47.5,29.93,NW,308,1.0,4.0,74,0.00,,,0.04,0,Wunderground v.1.15,2013-08-14 09:06:00,
2013-08-14 05:08:00,55.7,47.5,29.93,NW,308,1.0,4.0,74,0.00,,,0.04,0,Wunderground v.1.15,2013-08-14 09:08:00,
2013-08-14 05:10:00,55.6,47.4,29.93,WNW,298,1.0,1.0,74,0.00,,,0.04,0,Wunderground v.1.15,2013-08-14 09:10:00,
2013-08-14 05:12:00,55.6,47.4,29.93,WNW,298,1.0,4.0,74,0.00,,,0.04,0,Wunderground v.1.15,2013-08-14 09:12:00,
2013-08-14 05:14:00,55.6,47.4,29.93,WNW,298,0.0,4.0,74,0.00,,,0.04,0,Wunderground v.1.15,2013-08-14 09:14:00,
2013-08-14 05:16:00,55.5,47.3,29.93,WNW,298,0.0,4.0,74,0.00,,,0.04,0,Wunderground v.1.15,2013-08-14 09:16:00,
2013-08-14 05:17:00,55.5,47.3,29.93,NW,308,1.0,4.0,74,0.00,,,0.04,0,Wunderground v.1.15,2013-08-14 09:17:00,
2013-08-14 05:18:00,55.5,47.3,29.93,NW,308,1.0,4.0,74,0.00,,,0.04,0,Wunderground v.1.15,2013-08-14 09:18:00,
2013-08-14 05:20:00,55.4,47.2,29.93,NW,308,1.0,1.0,74,0.00,,,0.04,0,Wunderground v.1.15,2013-08-14 09:20:00,
2013-08-14 05:21:00,55.4,47.6,29.93,NW,308,0.0,4.0,75,0.00,,,0.04,0,Wunderground v.1.15,2013-08-14 09:21:00,
2013-08-14 05:25:00,55.2,47.4,29.93,NW,318,1.0,4.0,75,0.00,,,0.04,0,Wunderground v.1.15,2013-08-14 09:25:00,
2013-08-14 05:26:00,55.2,47.4,29.94,NW,315,1.0,4.0,75,0.00,,,0.04,0,Wunderground v.1.15,2013-08-14 09:26:00,
2013-08-14 05:27:00,55.2,47.4,29.94,NW,314,0.0,4.0,75,0.00,,,0.04,0,Wunderground v.1.15,2013-08-14 09:27:00,
2013-08-14 05:32:00,55.0,47.2,29.94,NW,304,1.0,4.0,75,0.00,,,0.04,0,Wunderground v.1.15,2013-08-14 09:32:00,
2013-08-14 05:33:00,55.0,47.2,29.94,NW,304,1.0,4.0,75,0.00,,,0.04,0,Wunderground v.1.15,2013-08-14 09:33:00,
2013-08-14 05:35:00,54.9,47.1,29.94,WNW,295,1.0,4.0,75,0.00,,,0.04,0,Wunderground v.1.15,2013-08-14 09:35:00,
2013-08-14 05:39:00,54.8,47.0,29.94,WNW,295,0.0,4.0,75,0.00,,,0.04,0,Wunderground v.1.15,2013-08-14 09:39:00,
2013-08-14 05:40:00,54.8,47.0,29.94,WNW,295,0.0,4.0,75,0.00,,,0.04,0,Wunderground v.1.15,2013-08-14 09:40:00,
2013-08-14 05:43:00,54.8,47.0,29.94,ENE,61,0.0,4.0,75,0.00,,,0.04,0,Wunderground v.1.15,2013-08-14 09:43:00,
2013-08-14 05:45:00,54.8,47.0,29.94,ENE,61,0.0,4.0,75,0.00,,,0.04,0,Wunderground v.1.15,2013-08-14 09:45:00,
2013-08-14 05:46:00,54.7,46.9,29.94,ENE,61,0.0,4.0,75,0.00,,,0.04,0,Wunderground v.1.15,2013-08-14 09:46:00,
2013-08-14 05:47:00,54.7,46.9,29.94,NW,325,0.0,4.0,75,0.00,,,0.04,0,Wunderground v.1.15,2013-08-14 09:47:00,
2013-08-14 05:48:00,54.7,46.9,29.94,WNW,303,0.0,4.0,75,0.00,,,0.04,0,Wunderground v.1.15,2013-08-14 09:48:00,
2013-08-14 05:50:00,54.7,46.9,29.94,WNW,300,1.0,4.0,75,0.00,,,0.04,0,Wunderground v.1.15,2013-08-14 09:50:00,
2013-08-14 05:51:00,54.7,46.9,29.94,WNW,287,1.0,4.0,75,0.00,,,0.04,0,Wunderground v.1.15,2013-08-14 09:51:00,
2013-08-14 05:52:00,54.7,46.9,29.94,WNW,303,1.0,4.0,75,0.00,,,0.04,0,Wunderground v.1.15,2013-08-14 09:52:00,
2013-08-14 05:57:00,54.8,47.0,29.94,NNW,330,1.0,4.0,75,0.00,,,0.04,0,Wunderground v.1.15,2013-08-14 09:57:00,
2013-08-14 05:58:00,54.8,47.0,29.94,NNW,330,1.0,4.0,75,0.00,,,0.04,0,Wunderground v.1.15,2013-08-14 09:58:00,
2013-08-14 05:59:00,54.8,47.0,29.94,NNW,330,1.0,4.0,75,0.00,,,0.04,0,Wunderground v.1.15,2013-08-14 09:59:00,
2013-08-14 06:01:00,54.8,47.0,29.94,North,355,1.0,2.0,75,0.00,,,0.04,0,Wunderground v.1.15,2013-08-14 10:01:00,
2013-08-14 06:02:00,54.8,47.0,29.94,North,355,1.0,2.0,75,0.00,,,0.04,0,Wunderground v.1.15,2013-08-14 10:02:00,
2013-08-14 06:05:00,54.6,46.8,29.94,North,355,1.0,2.0,75,0.00,,,0.04,0,Wunderground v.1.15,2013-08-14 10:05:00,
2013-08-14 06:07:00,54.6,47.2,29.94,North,355,1.0,2.0,76,0.00,,,0.04,0,Wunderground v.1.15,2013-08-14 10:07:00,
2013-08-14 06:08:00,54.6,47.2,29.93,North,355,1.0,2.0,76,0.00,,,0.04,0,Wunderground v.1.15,2013-08-14 10:08:00,
2013-08-14 06:11:00,54.5,47.1,29.94,NW,306,1.0,2.0,76,0.00,,,0.04,0,Wunderground v.1.15,2013-08-14 10:11:00,
2013-08-14 06:12:00,54.4,46.6,29.93,NW,306,1.0,2.0,75,0.00,,,0.04,0,Wunderground v.1.15,2013-08-14 10:12:00,
2013-08-14 06:13:00,54.4,46.6,29.94,NW,306,1.0,2.0,75,0.00,,,0.04,0,Wunderground v.1.15,2013-08-14 10:13:00,
2013-08-14 06:16:00,54.4,47.0,29.94,NW,306,1.0,2.0,76,0.00,,,0.04,5,Wunderground v.1.15,2013-08-14 10:16:00,
2013-08-14 06:17:00,54.4,46.6,29.94,NW,306,1.0,2.0,75,0.00,,,0.04,5,Wunderground v.1.15,2013-08-14 10:17:00,
2013-08-14 06:18:00,54.4,47.0,29.94,NW,306,0.0,2.0,76,0.00,,,0.04,5,Wunderground v.1.15,2013-08-14 10:18:00,
2013-08-14 06:22:00,54.3,46.9,29.94,South,182,0.0,2.0,76,0.00,,,0.04,7,Wunderground v.1.15,2013-08-14 10:22:00,
2013-08-14 06:24:00,54.3,46.9,29.94,WSW,246,0.0,2.0,76,0.00,,,0.04,7,Wunderground v.1.15,2013-08-14 10:24:00,
2013-08-14 06:27:00,54.3,46.9,29.95,SE,127,0.0,2.0,76,0.00,,,0.04,9,Wunderground v.1.15,2013-08-14 10:27:00,
2013-08-14 06:29:00,54.3,46.9,29.94,West,259,0.0,2.0,76,0.00,,,0.04,11,Wunderground v.1.15,2013-08-14 10:29:00,
2013-08-14 06:31:00,54.3,46.9,29.95,WNW,297,1.0,5.0,76,0.00,,,0.04,11,Wunderground v.1.15,2013-08-14 10:31:00,
2013-08-14 06:33:00,54.3,46.9,29.95,NW,309,1.0,5.0,76,0.00,,,0.04,12,Wunderground v.1.15,2013-08-14 10:33:00,
2013-08-14 06:34:00,54.3,46.9,29.95,NNW,331,1.0,5.0,76,0.00,,,0.04,12,Wunderground v.1.15,2013-08-14 10:34:00,
2013-08-14 06:38:00,54.1,47.0,29.95,NNW,331,1.0,5.0,77,0.00,,,0.04,14,Wunderground v.1.15,2013-08-14 10:38:00,
2013-08-14 06:39:00,54.1,47.0,29.95,North,355,1.0,5.0,77,0.00,,,0.04,14,Wunderground v.1.15,2013-08-14 10:39:00,
2013-08-14 06:40:00,54.1,47.0,29.95,NE,51,1.0,2.0,77,0.00,,,0.04,14,Wunderground v.1.15,2013-08-14 10:40:00,
2013-08-14 06:44:00,54.0,47.0,29.95,North,5,1.0,2.0,77,0.00,,,0.04,16,Wunderground v.1.15,2013-08-14 10:44:00,
2013-08-14 06:45:00,54.0,47.0,29.95,North,5,1.0,2.0,77,0.00,,,0.04,16,Wunderground v.1.15,2013-08-14 10:45:00,
2013-08-14 06:46:00,54.0,47.0,29.95,North,355,1.0,2.0,77,0.00,,,0.04,16,Wunderground v.1.15,2013-08-14 10:46:00,
2013-08-14 06:48:00,53.9,46.9,29.95,NW,325,1.0,2.0,77,0.00,,,0.04,18,Wunderground v.1.15,2013-08-14 10:48:00,
2013-08-14 06:49:00,53.9,47.2,29.95,NW,325,1.0,2.0,78,0.00,,,0.04,18,Wunderground v.1.15,2013-08-14 10:49:00,
2013-08-14 06:53:00,53.8,47.1,29.95,WNW,302,1.0,2.0,78,0.00,,,0.04,19,Wunderground v.1.15,2013-08-14 10:53:00,
2013-08-14 06:55:00,53.8,47.1,29.95,West,279,1.0,2.0,78,0.00,,,0.04,21,Wunderground v.1.15,2013-08-14 10:55:00,
2013-08-14 06:56:00,53.8,47.1,29.95,West,279,1.0,2.0,78,0.00,,,0.04,21,Wunderground v.1.15,2013-08-14 10:56:00,
2013-08-14 06:59:00,53.8,47.1,29.95,WNW,290,1.0,2.0,78,0.00,,,0.04,23,Wunderground v.1.15,2013-08-14 10:59:00,
2013-08-14 07:03:00,53.9,47.2,29.95,NW,315,1.0,2.0,78,0.00,,,0.04,25,Wunderground v.1.15,2013-08-14 11:03:00,
2013-08-14 07:04:00,53.9,47.2,29.95,NNE,12,1.0,2.0,78,0.00,,,0.04,25,Wunderground v.1.15,2013-08-14 11:04:00,
2013-08-14 07:05:00,53.9,47.2,29.95,NNW,342,1.0,2.0,78,0.00,,,0.04,25,Wunderground v.1.15,2013-08-14 11:05:00,
2013-08-14 07:06:00,54.0,47.3,29.95,WNW,297,1.0,4.0,78,0.00,,,0.04,25,Wunderground v.1.15,2013-08-14 11:06:00,
2013-08-14 07:09:00,54.1,47.4,29.95,NW,316,1.0,4.0,78,0.00,,,0.04,26,Wunderground v.1.15,2013-08-14 11:09:00,
2013-08-14 07:11:00,54.1,47.4,29.95,NW,315,2.0,2.0,78,0.00,,,0.04,26,Wunderground v.1.15,2013-08-14 11:11:00,
2013-08-14 07:15:00,54.2,47.1,29.96,NW,306,1.0,2.0,77,0.00,,,0.04,28,Wunderground v.1.15,2013-08-14 11:15:00,
2013-08-14 07:17:00,54.2,47.1,29.96,West,265,1.0,2.0,77,0.00,,,0.04,28,Wunderground v.1.15,2013-08-14 11:17:00,
2013-08-14 07:18:00,54.2,47.1,29.96,NW,310,1.0,2.0,77,0.00,,,0.04,30,Wunderground v.1.15,2013-08-14 11:18:00,
2013-08-14 07:21:00,54.4,47.3,29.96,NNW,338,1.0,3.0,77,0.00,,,0.04,30,Wunderground v.1.15,2013-08-14 11:21:00,
2013-08-14 07:22:00,54.4,47.3,29.96,WNW,292,1.0,3.0,77,0.00,,,0.04,30,Wunderground v.1.15,2013-08-14 11:22:00,
2013-08-14 07:23:00,54.4,47.3,29.96,West,270,1.0,3.0,77,0.00,,,0.04,30,Wunderground v.1.15,2013-08-14 11:23:00,
2013-08-14 07:24:00,54.5,47.4,29.96,West,270,1.0,3.0,77,0.00,,,0.04,30,Wunderground v.1.15,2013-08-14 11:24:00,
2013-08-14 07:27:00,54.6,47.5,29.96,WNW,287,1.0,3.0,77,0.00,,,0.04,32,Wunderground v.1.15,2013-08-14 11:27:00,
2013-08-14 07:28:00,54.7,47.6,29.96,WNW,288,1.0,3.0,77,0.00,,,0.04,32,Wunderground v.1.15,2013-08-14 11:28:00,
2013-08-14 07:29:00,54.8,47.7,29.96,West,280,1.0,3.0,77,0.00,,,0.04,32,Wunderground v.1.15,2013-08-14 11:29:00,
2013-08-14 07:34:00,55.0,47.6,29.96,WNW,289,1.0,2.0,76,0.00,,,0.04,33,Wunderground v.1.15,2013-08-14 11:34:00,
2013-08-14 07:35:00,55.0,47.6,29.96,South,176,1.0,2.0,76,0.00,,,0.04,33,Wunderground v.1.15,2013-08-14 11:35:00,
2013-08-14 07:38:00,55.1,47.7,29.96,SE,146,1.0,2.0,76,0.00,,,0.04,33,Wunderground v.1.15,2013-08-14 11:38:00,
2013-08-14 07:40:00,55.2,47.8,29.97,NNW,340,1.0,2.0,76,0.00,,,0.04,35,Wunderground v.1.15,2013-08-14 11:40:00,
2013-08-14 07:41:00,55.3,47.9,29.96,NW,313,1.0,2.0,76,0.00,,,0.04,35,Wunderground v.1.15,2013-08-14 11:41:00,
2013-08-14 07:45:00,55.5,48.1,29.96,NW,309,1.0,2.0,76,0.00,,,0.04,37,Wunderground v.1.15,2013-08-14 11:45:00,
2013-08-14 07:47:00,55.5,48.1,29.97,WNW,286,1.0,2.0,76,0.00,,,0.04,37,Wunderground v.1.15,2013-08-14 11:47:00,
2013-08-14 07:48:00,55.6,48.2,29.97,WNW,292,1.0,2.0,76,0.00,,,0.04,37,Wunderground v.1.15,2013-08-14 11:48:00,
2013-08-14 07:50:00,55.7,48.2,29.97,NW,309,1.0,1.0,76,0.00,,,0.04,37,Wunderground v.1.15,2013-08-14 11:50:00,
2013-08-14 07:53:00,55.9,48.4,29.97,WNW,303,1.0,3.0,76,0.00,,,0.04,39,Wunderground v.1.15,2013-08-14 11:53:00,
2013-08-14 07:55:00,56.0,48.5,29.97,NNE,16,2.0,4.0,76,0.00,,,0.04,39,Wunderground v.1.15,2013-08-14 11:55:00,
2013-08-14 07:58:00,56.2,48.4,29.97,NW,313,2.0,4.0,75,0.00,,,0.04,39,Wunderground v.1.15,2013-08-14 11:58:00,
2013-08-14 08:00:00,56.4,48.6,29.97,WNW,294,2.0,4.0,75,0.00,,,0.04,40,Wunderground v.1.15,2013-08-14 12:00:00,
2013-08-14 08:01:00,56.4,48.6,29.97,WSW,240,2.0,4.0,75,0.00,,,0.04,40,Wunderground v.1.15,2013-08-14 12:01:00,
2013-08-14 08:07:00,56.9,48.7,29.97,WNW,300,3.0,5.0,74,0.00,,,0.04,65,Wunderground v.1.15,2013-08-14 12:07:00,
2013-08-14 08:08:00,56.9,49.1,29.97,NW,325,3.0,5.0,75,0.00,,,0.04,67,Wunderground v.1.15,2013-08-14 12:08:00,
2013-08-14 08:09:00,57.1,48.9,29.97,NW,309,3.0,3.0,74,0.00,,,0.04,76,Wunderground v.1.15,2013-08-14 12:09:00,
2013-08-14 08:11:00,57.2,49.0,29.97,NNW,328,3.0,3.0,74,0.00,,,0.04,74,Wunderground v.1.15,2013-08-14 12:11:00,
2013-08-14 08:13:00,57.4,49.2,29.97,West,281,3.0,5.0,74,0.00,,,0.04,42,Wunderground v.1.15,2013-08-14 12:13:00,
2013-08-14 08:14:00,57.4,48.8,29.97,NNW,333,3.0,5.0,73,0.00,,,0.04,42,Wunderground v.1.15,2013-08-14 12:14:00,
2013-08-14 08:15:00,57.5,48.9,29.97,WNW,290,3.0,5.0,73,0.00,,,0.04,70,Wunderground v.1.15,2013-08-14 12:15:00,
2013-08-14 08:16:00,57.5,49.3,29.98,North,9,3.0,5.0,74,0.00,,,0.04,229,Wunderground v.1.15,2013-08-14 12:16:00,
2013-08-14 08:19:00,57.6,49.0,29.98,NNE,25,4.0,6.0,73,0.00,,,0.04,323,Wunderground v.1.15,2013-08-14 12:19:00,
2013-08-14 08:20:00,57.7,49.1,29.98,NW,309,3.0,3.0,73,0.00,,,0.04,327,Wunderground v.1.15,2013-08-14 12:20:00,
2013-08-14 08:23:00,57.9,48.9,29.98,NNE,15,4.0,5.0,72,0.00,,,0.04,338,Wunderground v.1.15,2013-08-14 12:23:00,
2013-08-14 08:24:00,58.0,49.0,29.98,NW,319,3.0,5.0,72,0.00,,,0.04,341,Wunderground v.1.15,2013-08-14 12:24:00,
2013-08-14 08:25:00,58.1,49.5,29.98,NW,320,3.0,5.0,73,0.00,,,0.04,343,Wunderground v.1.15,2013-08-14 12:25:00,
2013-08-14 08:26:00,58.2,49.2,29.98,WNW,300,3.0,5.0,72,0.00,,,0.04,346,Wunderground v.1.15,2013-08-14 12:26:00,
2013-08-14 08:27:00,58.3,49.3,29.98,NNW,336,3.0,5.0,72,0.00,,,0.04,350,Wunderground v.1.15,2013-08-14 12:27:00,
2013-08-14 08:32:00,58.6,49.2,29.98,NW,322,3.0,5.0,71,0.00,,,0.04,371,Wunderground v.1.15,2013-08-14 12:32:00,
2013-08-14 08:33:00,58.6,49.2,29.98,WNW,302,3.0,5.0,71,0.00,,,0.04,297,Wunderground v.1.15,2013-08-14 12:33:00,
2013-08-14 08:35:00,58.7,49.3,29.98,West,267,3.0,5.0,71,0.00,,,0.04,378,Wunderground v.1.15,2013-08-14 12:35:00,
2013-08-14 08:37:00,58.7,49.3,29.98,NW,312,4.0,5.0,71,0.00,,,0.04,381,Wunderground v.1.15,2013-08-14 12:37:00,
2013-08-14 08:38:00,58.8,49.4,29.98,West,281,4.0,5.0,71,0.00,,,0.04,385,Wunderground v.1.15,2013-08-14 12:38:00,
2013-08-14 08:39:00,58.9,49.5,29.98,NW,322,4.0,5.0,71,0.00,,,0.04,388,Wunderground v.1.15,2013-08-14 12:39:00,
2013-08-14 08:43:00,59.1,48.9,29.98,WNW,290,4.0,9.0,69,0.00,,,0.04,417,Wunderground v.1.15,2013-08-14 12:43:00,
2013-08-14 08:45:00,59.2,49.8,29.98,NW,307,4.0,9.0,71,0.00,,,0.04,427,Wunderground v.1.15,2013-08-14 12:45:00,
2013-08-14 08:47:00,59.4,49.2,29.98,NNW,331,5.0,9.0,69,0.00,,,0.04,431,Wunderground v.1.15,2013-08-14 12:47:00,
2013-08-14 08:48:00,59.4,49.2,29.98,WNW,300,5.0,9.0,69,0.00,,,0.04,439,Wunderground v.1.15,2013-08-14 12:48:00,
2013-08-14 08:52:00,59.4,49.2,29.98,West,280,5.0,8.0,69,0.00,,,0.04,457,Wunderground v.1.15,2013-08-14 12:52:00,
2013-08-14 08:53:00,59.3,49.1,29.98,North,360,5.0,8.0,69,0.00,,,0.04,234,Wunderground v.1.15,2013-08-14 12:53:00,
2013-08-14 08:54:00,59.3,49.1,29.98,WNW,290,5.0,8.0,69,0.00,,,0.04,199,Wunderground v.1.15,2013-08-14 12:54:00,
2013-08-14 08:59:00,59.5,49.7,29.98,WNW,294,4.0,8.0,70,0.00,,,0.04,432,Wunderground v.1.15,2013-08-14 12:59:00,
2013-08-14 09:00:00,59.5,49.7,29.98,NW,309,4.0,4.0,70,0.00,,,0.04,432,Wunderground v.1.15,2013-08-14 13:00:00,
2013-08-14 09:01:00,59.5,49.3,29.98,WNW,294,4.0,6.0,69,0.00,,,0.04,216,Wunderground v.1.15,2013-08-14 13:01:00,
2013-08-14 09:05:00,59.7,49.5,29.98,NW,315,3.0,6.0,69,0.00,,,0.04,475,Wunderground v.1.15,2013-08-14 13:05:00,
2013-08-14 09:06:00,59.8,50.0,29.98,NW,323,3.0,6.0,70,0.00,,,0.04,475,Wunderground v.1.15,2013-08-14 13:06:00,
2013-08-14 09:07:00,59.9,49.7,29.98,NW,304,3.0,6.0,69,0.00,,,0.04,475,Wunderground v.1.15,2013-08-14 13:07:00,
2013-08-14 09:12:00,60.2,50.0,29.98,WNW,296,4.0,6.0,69,0.00,,,0.04,490,Wunderground v.1.15,2013-08-14 13:12:00,
2013-08-14 09:13:00,60.3,49.7,29.98,WNW,298,4.0,6.0,68,0.00,,,0.04,490,Wunderground v.1.15,2013-08-14 13:13:00,
2013-08-14 09:14:00,60.3,50.1,29.98,NNW,347,4.0,6.0,69,0.00,,,0.04,494,Wunderground v.1.15,2013-08-14 13:14:00,
2013-08-14 09:15:00,60.4,50.6,29.98,WNW,301,4.0,6.0,70,0.00,,,0.04,497,Wunderground v.1.15,2013-08-14 13:15:00,
2013-08-14 09:18:00,60.6,50.4,29.98,NNW,327,4.0,7.0,69,0.00,,,0.04,522,Wunderground v.1.15,2013-08-14 13:18:00,
2013-08-14 09:19:00,60.7,50.9,29.98,North,355,4.0,7.0,70,0.00,,,0.04,531,Wunderground v.1.15,2013-08-14 13:19:00,
2013-08-14 09:20:00,60.8,50.2,29.98,NNE,15,3.0,6.0,68,0.00,,,0.04,536,Wunderground v.1.15,2013-08-14 13:20:00,
2013-08-14 09:21:00,60.8,49.8,29.98,WNW,301,3.0,6.0,67,0.00,,,0.04,536,Wunderground v.1.15,2013-08-14 13:21:00,
2013-08-14 09:22:00,60.9,50.3,29.98,West,277,3.0,6.0,68,0.00,,,0.04,545,Wunderground v.1.15,2013-08-14 13:22:00,
2013-08-14 09:27:00,60.9,50.3,29.98,NW,307,4.0,6.0,68,0.00,,,0.00,598,Wunderground v.1.15,2013-08-14 13:27:00,
2013-08-14 09:28:00,60.9,49.9,29.98,WSW,253,4.0,6.0,67,0.00,,,0.00,598,Wunderground v.1.15,2013-08-14 13:28:00,
2013-08-14 09:30:00,61.0,50.4,29.98,NW,304,4.0,4.0,68,0.00,,,0.00,564,Wunderground v.1.15,2013-08-14 13:30:00,
2013-08-14 09:32:00,61.1,50.5,29.98,NNW,341,4.0,6.0,68,0.00,,,0.00,580,Wunderground v.1.15,2013-08-14 13:32:00,
2013-08-14 09:33:00,61.1,50.5,29.98,WNW,297,4.0,6.0,68,0.00,,,0.00,580,Wunderground v.1.15,2013-08-14 13:33:00,
2013-08-14 09:34:00,61.3,50.6,29.98,NNW,333,4.0,6.0,68,0.00,,,0.00,601,Wunderground v.1.15,2013-08-14 13:34:00,
2013-08-14 09:37:00,61.4,50.3,29.98,NNW,346,4.0,6.0,67,0.00,,,0.00,592,Wunderground v.1.15,2013-08-14 13:37:00,
2013-08-14 09:38:00,61.4,50.3,29.98,NW,313,4.0,6.0,67,0.00,,,0.00,598,Wunderground v.1.15,2013-08-14 13:38:00,
2013-08-14 09:42:00,61.5,50.4,29.98,WNW,292,4.0,6.0,67,0.00,,,0.00,578,Wunderground v.1.15,2013-08-14 13:42:00,
2013-08-14 09:44:00,61.7,50.2,29.98,NNW,338,4.0,6.0,66,0.00,,,0.00,598,Wunderground v.1.15,2013-08-14 13:44:00,
2013-08-14 09:45:00,61.8,50.7,29.98,WNW,293,4.0,6.0,67,0.00,,,0.00,598,Wunderground v.1.15,2013-08-14 13:45:00,
2013-08-14 09:49:00,62.1,51.0,29.99,North,360,4.0,6.0,67,0.00,,,0.00,605,Wunderground v.1.15,2013-08-14 13:49:00,
2013-08-14 09:50:00,62.2,51.1,29.99,North,351,4.0,6.0,67,0.00,,,0.00,615,Wunderground v.1.15,2013-08-14 13:50:00,
2013-08-14 09:53:00,62.4,51.3,29.99,NW,326,4.0,13.0,67,0.00,,,0.00,642,Wunderground v.1.15,2013-08-14 13:53:00,
2013-08-14 09:54:00,62.5,50.6,29.99,WNW,300,4.0,13.0,65,0.00,,,0.00,642,Wunderground v.1.15,2013-08-14 13:54:00,
2013-08-14 09:55:00,62.5,50.6,29.98,North,350,4.0,13.0,65,0.00,,,0.00,642,Wunderground v.1.15,2013-08-14 13:55:00,
2013-08-14 09:57:00,62.6,50.7,29.98,WNW,290,4.0,13.0,65,0.00,,,0.00,626,Wunderground v.1.15,2013-08-14 13:57:00,
2013-08-14 10:00:00,62.7,50.3,29.99,West,279,5.0,11.0,64,0.00,,,0.00,636,Wunderground v.1.15,2013-08-14 14:00:00,
2013-08-14 10:01:00,62.6,50.2,29.99,NW,309,5.0,11.0,64,0.00,,,0.00,636,Wunderground v.1.15,2013-08-14 14:01:00,
2013-08-14 10:02:00,62.6,50.2,29.98,NW,309,5.0,11.0,64,0.00,,,0.00,633,Wunderground v.1.15,2013-08-14 14:02:00,
2013-08-14 10:04:00,62.6,50.7,29.98,North,355,5.0,11.0,65,0.00,,,0.00,635,Wunderground v.1.15,2013-08-14 14:04:00,
2013-08-14 10:08:00,62.7,50.8,29.99,NW,309,6.0,11.0,65,0.00,,,0.00,661,Wunderground v.1.15,2013-08-14 14:08:00,
2013-08-14 10:09:00,62.7,51.2,29.99,NNW,336,6.0,11.0,66,0.00,,,0.00,661,Wunderground v.1.15,2013-08-14 14:09:00,
2013-08-14 10:10:00,62.7,50.8,29.99,WNW,284,6.0,11.0,65,0.00,,,0.00,661,Wunderground v.1.15,2013-08-14 14:10:00,
2013-08-14 10:11:00,62.7,50.8,29.99,NNW,347,6.0,11.0,65,0.00,,,0.00,654,Wunderground v.1.15,2013-08-14 14:11:00,
2013-08-14 10:13:00,62.7,50.3,29.99,WNW,301,7.0,11.0,64,0.00,,,0.00,654,Wunderground v.1.15,2013-08-14 14:13:00,
2013-08-14 10:16:00,62.8,50.4,29.99,North,360,6.0,11.0,64,0.00,,,0.00,663,Wunderground v.1.15,2013-08-14 14:16:00,
2013-08-14 10:19:00,63.0,50.6,29.99,NNW,333,6.0,11.0,64,0.00,,,0.00,691,Wunderground v.1.15,2013-08-14 14:19:00,
2013-08-14 10:21:00,63.0,51.0,29.99,West,279,6.0,11.0,65,0.00,,,0.00,728,Wunderground v.1.15,2013-08-14 14:21:00,
2013-08-14 10:23:00,63.2,50.8,29.99,North,355,6.0,12.0,64,0.00,,,0.00,779,Wunderground v.1.15,2013-08-14 14:23:00,
2013-08-14 10:24:00,63.2,50.4,29.99,North,349,6.0,12.0,63,0.00,,,0.00,798,Wunderground v.1.15,2013-08-14 14:24:00,
2013-08-14 10:25:00,63.2,51.2,29.99,North,349,6.0,12.0,65,0.00,,,0.00,798,Wunderground v.1.15,2013-08-14 14:25:00,
2013-08-14 10:26:00,63.4,50.6,29.99,NW,321,6.0,12.0,63,0.00,,,0.00,849,Wunderground v.1.15,2013-08-14 14:26:00,
2013-08-14 10:31:00,63.9,51.5,30.00,WNW,282,6.0,11.0,64,0.00,,,0.00,1000,Wunderground v.1.15,2013-08-14 14:31:00,
2013-08-14 10:32:00,63.9,51.1,30.00,WNW,287,6.0,11.0,63,0.00,,,0.00,320,Wunderground v.1.15,2013-08-14 14:32:00,
2013-08-14 10:34:00,63.9,51.5,30.00,WNW,292,6.0,11.0,64,0.00,,,0.00,320,Wunderground v.1.15,2013-08-14 14:34:00,
2013-08-14 10:39:00,64.1,51.2,30.00,WNW,301,5.0,11.0,63,0.00,,,0.00,271,Wunderground v.1.15,2013-08-14 14:39:00,
2013-08-14 10:40:00,64.2,51.8,30.00,NW,313,5.0,5.0,64,0.00,,,0.00,271,Wunderground v.1.15,2013-08-14 14:40:00,
2013-08-14 10:41:00,64.2,51.3,30.00,WNW,290,5.0,11.0,63,0.00,,,0.00,271,Wunderground v.1.15,2013-08-14 14:41:00,
2013-08-14 10:43:00,64.3,51.4,30.00,NW,310,5.0,11.0,63,0.00,,,0.00,271,Wunderground v.1.15,2013-08-14 14:43:00,
2013-08-14 10:47:00,64.1,51.2,30.00,SSW,213,5.0,11.0,63,0.00,,,0.00,302,Wunderground v.1.15,2013-08-14 14:47:00,
2013-08-14 10:49:00,64.1,51.7,30.00,NW,304,4.0,11.0,64,0.00,,,0.00,418,Wunderground v.1.15,2013-08-14 14:49:00,
2013-08-14 10:52:00,64.1,50.8,30.00,North,355,5.0,11.0,62,0.00,,,0.00,369,Wunderground v.1.15,2013-08-14 14:52:00,
2013-08-14 10:53:00,64.2,51.3,30.00,NW,321,5.0,11.0,63,0.00,,,0.00,339,Wunderground v.1.15,2013-08-14 14:53:00,
2013-08-14 10:55:00,64.3,51.4,30.00,NE,46,5.0,11.0,63,0.00,,,0.00,308,Wunderground v.1.15,2013-08-14 14:55:00,
2013-08-14 10:59:00,64.2,51.3,30.00,WNW,291,6.0,11.0,63,0.00,,,0.00,432,Wunderground v.1.15,2013-08-14 14:59:00,
2013-08-14 11:01:00,64.3,51.9,30.01,NNW,333,6.0,7.0,64,0.00,,,0.00,468,Wunderground v.1.15,2013-08-14 15:01:00,
2013-08-14 11:02:00,64.3,51.4,30.01,NNW,333,6.0,8.0,63,0.00,,,0.00,432,Wunderground v.1.15,2013-08-14 15:02:00,
2013-08-14 11:05:00,64.3,51.9,30.01,WNW,300,6.0,8.0,64,0.00,,,0.00,396,Wunderground v.1.15,2013-08-14 15:05:00,
2013-08-14 11:07:00,64.3,51.4,30.01,WNW,300,6.0,8.0,63,0.00,,,0.00,441,Wunderground v.1.15,2013-08-14 15:07:00,
2013-08-14 11:08:00,64.2,51.3,30.00,West,281,5.0,8.0,63,0.00,,,0.00,446,Wunderground v.1.15,2013-08-14 15:08:00,
2013-08-14 11:09:00,64.2,51.3,30.01,West,279,5.0,8.0,63,0.00,,,0.00,376,Wunderground v.1.15,2013-08-14 15:09:00,
2013-08-14 11:13:00,64.3,51.4,30.01,NW,304,5.0,8.0,63,0.00,,,0.00,334,Wunderground v.1.15,2013-08-14 15:13:00,
2013-08-14 11:15:00,64.3,51.4,30.01,WNW,300,5.0,8.0,63,0.00,,,0.00,323,Wunderground v.1.15,2013-08-14 15:15:00,
2013-08-14 11:16:00,64.2,51.3,30.01,North,355,5.0,9.0,63,0.00,,,0.00,304,Wunderground v.1.15,2013-08-14 15:16:00,
2013-08-14 11:17:00,64.1,50.4,30.01,NNE,25,5.0,9.0,61,0.00,,,0.00,294,Wunderground v.1.15,2013-08-14 15:17:00,
2013-08-14 11:21:00,64.0,51.6,30.01,WNW,286,5.0,8.0,64,0.00,,,0.00,327,Wunderground v.1.15,2013-08-14 15:21:00,
2013-08-14 11:22:00,64.0,51.6,30.01,WNW,292,5.0,8.0,64,0.00,,,0.00,327,Wunderground v.1.15,2013-08-14 15:22:00,
2013-08-14 11:23:00,63.9,51.1,30.00,WNW,292,5.0,8.0,63,0.00,,,0.00,323,Wunderground v.1.15,2013-08-14 15:23:00,
2013-08-14 11:24:00,63.9,51.5,30.01,NNW,330,5.0,8.0,64,0.00,,,0.00,320,Wunderground v.1.15,2013-08-14 15:24:00,
2013-08-14 11:28:00,63.9,51.5,30.01,NW,311,4.0,8.0,64,0.00,,,0.00,325,Wunderground v.1.15,2013-08-14 15:28:00,
2013-08-14 11:29:00,63.9,51.5,30.01,NNW,333,4.0,8.0,64,0.00,,,0.00,322,Wunderground v.1.15,2013-08-14 15:29:00,
2013-08-14 11:30:00,64.0,51.1,30.01,NW,304,5.0,8.0,63,0.00,,,0.00,357,Wunderground v.1.15,2013-08-14 15:30:00,
2013-08-14 11:34:00,64.1,51.2,30.01,NW,325,4.0,9.0,63,0.00,,,0.00,390,Wunderground v.1.15,2013-08-14 15:34:00,
2013-08-14 11:37:00,64.3,51.4,30.01,North,350,4.0,9.0,63,0.00,,,0.00,306,Wunderground v.1.15,2013-08-14 15:37:00,
2013-08-14 11:38:00,64.4,51.5,30.01,WNW,297,4.0,9.0,63,0.00,,,0.00,304,Wunderground v.1.15,2013-08-14 15:38:00,
2013-08-14 11:41:00,64.5,51.2,30.01,WNW,301,4.0,8.0,62,0.00,,,0.00,285,Wunderground v.1.15,2013-08-14 15:41:00,
2013-08-14 11:42:00,64.5,51.2,30.01,North,9,4.0,8.0,62,0.00,,,0.00,299,Wunderground v.1.15,2013-08-14 15:42:00,
2013-08-14 11:45:00,64.5,51.2,30.01,NNW,336,3.0,8.0,62,0.00,,,0.00,334,Wunderground v.1.15,2013-08-14 15:45:00,
2013-08-14 11:46:00,64.5,51.2,30.01,West,278,4.0,8.0,62,0.00,,,0.00,338,Wunderground v.1.15,2013-08-14 15:46:00,
2013-08-14 11:47:00,64.5,50.7,30.01,WNW,300,4.0,8.0,61,0.00,,,0.00,330,Wunderground v.1.15,2013-08-14 15:47:00,
2013-08-14 11:48:00,64.5,51.2,30.01,NW,316,4.0,8.0,62,0.00,,,0.00,279,Wunderground v.1.15,2013-08-14 15:48:00,
2013-08-14 11:52:00,64.4,51.1,30.01,WNW,285,5.0,8.0,62,0.00,,,0.00,250,Wunderground v.1.15,2013-08-14 15:52:00,
2013-08-14 11:54:00,64.4,51.1,30.01,NW,313,5.0,8.0,62,0.00,,,0.00,218,Wunderground v.1.15,2013-08-14 15:54:00,
2013-08-14 11:55:00,64.4,51.1,30.01,West,270,5.0,8.0,62,0.00,,,0.00,211,Wunderground v.1.15,2013-08-14 15:55:00,
2013-08-14 11:57:00,64.4,51.1,30.01,WNW,300,5.0,8.0,62,0.00,,,0.00,223,Wunderground v.1.15,2013-08-14 15:57:00,
2013-08-14 12:00:00,64.3,51.4,30.02,NNE,32,4.0,6.0,63,0.00,,,0.00,272,Wunderground v.1.15,2013-08-14 16:00:00,
2013-08-14 12:02:00,64.3,51.4,30.02,WNW,296,4.0,6.0,63,0.00,,,0.00,283,Wunderground v.1.15,2013-08-14 16:02:00,
2013-08-14 12:03:00,64.3,51.0,30.02,NW,317,4.0,6.0,62,0.00,,,0.00,295,Wunderground v.1.15,2013-08-14 16:03:00,
2013-08-14 12:04:00,64.3,51.0,30.02,WNW,295,4.0,6.0,62,0.00,,,0.00,302,Wunderground v.1.15,2013-08-14 16:04:00,
2013-08-14 12:05:00,64.3,51.4,30.02,WNW,297,4.0,6.0,63,0.00,,,0.00,323,Wunderground v.1.15,2013-08-14 16:05:00,
2013-08-14 12:07:00,64.3,51.4,30.02,North,350,4.0,6.0,63,0.00,,,0.00,355,Wunderground v.1.15,2013-08-14 16:07:00,
2013-08-14 12:12:00,64.6,51.3,30.02,NW,321,5.0,8.0,62,0.00,,,0.00,329,Wunderground v.1.15,2013-08-14 16:12:00,
2013-08-14 12:13:00,64.6,50.8,30.02,WNW,283,5.0,8.0,61,0.00,,,0.00,343,Wunderground v.1.15,2013-08-14 16:13:00,
2013-08-14 12:14:00,64.6,50.8,30.02,NW,321,5.0,8.0,61,0.00,,,0.00,367,Wunderground v.1.15,2013-08-14 16:14:00,
2013-08-14 12:16:00,64.6,50.8,30.02,WNW,288,5.0,8.0,61,0.00,,,0.00,445,Wunderground v.1.15,2013-08-14 16:16:00,
2013-08-14 12:19:00,64.9,51.6,30.02,West,277,5.0,8.0,62,0.00,,,0.00,445,Wunderground v.1.15,2013-08-14 16:19:00,
2013-08-14 12:22:00,65.1,51.8,30.02,NW,304,5.0,6.0,62,0.00,,,0.00,378,Wunderground v.1.15,2013-08-14 16:22:00,
2013-08-14 12:27:00,65.1,51.8,30.02,WNW,282,5.0,7.0,62,0.00,,,0.00,313,Wunderground v.1.15,2013-08-14 16:27:00,
2013-08-14 12:28:00,65.0,51.7,30.02,WNW,303,5.0,7.0,62,0.00,,,0.00,313,Wunderground v.1.15,2013-08-14 16:28:00,
2013-08-14 12:29:00,65.0,51.7,30.02,NW,323,5.0,7.0,62,0.00,,,0.00,304,Wunderground v.1.15,2013-08-14 16:29:00,
2013-08-14 12:30:00,65.0,52.1,30.02,NNW,338,5.0,6.0,63,0.00,,,0.00,301,Wunderground v.1.15,2013-08-14 16:30:00,
2013-08-14 12:31:00,65.0,51.7,30.02,NW,320,5.0,6.0,62,0.00,,,0.00,295,Wunderground v.1.15,2013-08-14 16:31:00,
2013-08-14 12:36:00,65.2,51.4,30.02,NW,315,4.0,7.0,61,0.00,,,0.00,236,Wunderground v.1.15,2013-08-14 16:36:00,
2013-08-14 12:37:00,65.2,51.8,30.02,North,350,4.0,7.0,62,0.00,,,0.00,255,Wunderground v.1.15,2013-08-14 16:37:00,
2013-08-14 12:38:00,65.2,51.8,30.02,NNW,346,4.0,7.0,62,0.00,,,0.00,279,Wunderground v.1.15,2013-08-14 16:38:00,
2013-08-14 12:39:00,65.3,52.4,30.02,NNW,348,4.0,7.0,63,0.00,,,0.00,308,Wunderground v.1.15,2013-08-14 16:39:00,
2013-08-14 12:44:00,65.5,51.2,30.02,West,259,4.0,7.0,60,0.00,,,0.00,403,Wunderground v.1.15,2013-08-14 16:44:00,
2013-08-14 12:46:00,65.6,51.8,30.02,North,360,4.0,7.0,61,0.00,,,0.00,403,Wunderground v.1.15,2013-08-14 16:46:00,
2013-08-14 12:47:00,65.8,52.0,30.02,WNW,298,4.0,7.0,61,0.00,,,0.00,471,Wunderground v.1.15,2013-08-14 16:47:00,
2013-08-14 12:49:00,66.2,53.7,30.02,WNW,292,4.0,7.0,64,0.00,,,0.00,471,Wunderground v.1.15,2013-08-14 16:49:00,
2013-08-14 12:50:00,66.3,52.9,30.02,WNW,294,4.0,4.0,62,0.00,,,0.00,471,Wunderground v.1.15,2013-08-14 16:50:00,
2013-08-14 12:51:00,66.6,52.7,30.02,NW,314,4.0,9.0,61,0.00,,,0.00,538,Wunderground v.1.15,2013-08-14 16:51:00,
2013-08-14 12:55:00,67.0,50.8,30.02,NW,306,5.0,10.0,56,0.00,,,0.00,557,Wunderground v.1.15,2013-08-14 16:55:00,
2013-08-14 12:56:00,66.9,50.7,30.02,WNW,288,6.0,10.0,56,0.00,,,0.00,557,Wunderground v.1.15,2013-08-14 16:56:00,
2013-08-14 12:59:00,66.7,51.5,30.02,WNW,288,6.0,10.0,58,0.00,,,0.00,348,Wunderground v.1.15,2013-08-14 16:59:00,
2013-08-14 13:00:00,66.6,51.4,30.02,West,273,7.0,7.0,58,0.00,,,0.00,311,Wunderground v.1.15,2013-08-14 17:00:00,
2013-08-14 13:01:00,66.6,51.8,30.02,NW,315,7.0,9.0,59,0.00,,,0.00,301,Wunderground v.1.15,2013-08-14 17:01:00,
2013-08-14 13:04:00,66.4,51.6,30.02,WNW,294,7.0,9.0,59,0.00,,,0.00,323,Wunderground v.1.15,2013-08-14 17:04:00,
2013-08-14 13:05:00,66.3,51.1,30.02,NW,313,6.0,9.0,58,0.00,,,0.00,330,Wunderground v.1.15,2013-08-14 17:05:00,
2013-08-14 13:07:00,66.1,51.4,30.02,NW,319,6.0,9.0,59,0.00,,,0.00,355,Wunderground v.1.15,2013-08-14 17:07:00,
2013-08-14 13:08:00,66.1,51.4,30.02,NNW,344,6.0,10.0,59,0.00,,,0.00,373,Wunderground v.1.15,2013-08-14 17:08:00,
2013-08-14 13:10:00,66.2,51.0,30.02,WNW,298,6.0,9.0,58,0.00,,,0.00,468,Wunderground v.1.15,2013-08-14 17:10:00,
2013-08-14 13:11:00,66.3,51.5,30.02,NNW,327,6.0,9.0,59,0.00,,,0.00,462,Wunderground v.1.15,2013-08-14 17:11:00,
2013-08-14 13:12:00,66.3,51.5,30.02,NW,318,6.0,9.0,59,0.00,,,0.00,462,Wunderground v.1.15,2013-08-14 17:12:00,
2013-08-14 13:13:00,66.4,50.7,30.02,West,280,6.0,9.0,57,0.00,,,0.00,462,Wunderground v.1.15,2013-08-14 17:13:00,
2013-08-14 13:14:00,66.4,51.2,30.02,WNW,291,6.0,9.0,58,0.00,,,0.00,466,Wunderground v.1.15,2013-08-14 17:14:00,
2013-08-14 13:18:00,66.2,51.0,30.02,WNW,297,6.0,9.0,58,0.00,,,0.00,403,Wunderground v.1.15,2013-08-14 17:18:00,
2013-08-14 13:19:00,66.2,51.0,30.02,NW,318,6.0,9.0,58,0.00,,,0.00,388,Wunderground v.1.15,2013-08-14 17:19:00,
2013-08-14 13:20:00,66.2,51.4,30.02,NW,319,6.0,6.0,59,0.00,,,0.00,364,Wunderground v.1.15,2013-08-14 17:20:00,
2013-08-14 13:22:00,66.3,52.0,30.02,WNW,294,6.0,9.0,60,0.00,,,0.00,220,Wunderground v.1.15,2013-08-14 17:22:00,
2013-08-14 13:24:00,66.3,52.4,30.02,NNW,337,5.0,9.0,61,0.00,,,0.00,202,Wunderground v.1.15,2013-08-14 17:24:00,
2013-08-14 13:25:00,66.4,52.1,30.02,West,270,5.0,9.0,60,0.00,,,0.00,183,Wunderground v.1.15,2013-08-14 17:25:00,
2013-08-14 13:26:00,66.4,52.1,30.02,WNW,294,4.0,9.0,60,0.00,,,0.00,151,Wunderground v.1.15,2013-08-14 17:26:00,
2013-08-14 13:27:00,66.4,52.5,30.02,North,355,4.0,9.0,61,0.00,,,0.00,151,Wunderground v.1.15,2013-08-14 17:27:00,
2013-08-14 13:28:00,66.4,52.5,30.02,NW,317,4.0,9.0,61,0.00,,,0.00,151,Wunderground v.1.15,2013-08-14 17:28:00,
2013-08-14 13:32:00,66.1,51.8,30.02,NW,308,4.0,9.0,60,0.00,,,0.00,255,Wunderground v.1.15,2013-08-14 17:32:00,
2013-08-14 13:33:00,66.1,51.8,30.03,NW,304,5.0,9.0,60,0.00,,,0.00,334,Wunderground v.1.15,2013-08-14 17:33:00,
2013-08-14 13:35:00,66.0,52.2,30.03,North,5,5.0,9.0,61,0.00,,,0.00,383,Wunderground v.1.15,2013-08-14 17:35:00,
2013-08-14 13:36:00,66.0,52.2,30.03,NW,311,6.0,9.0,61,0.00,,,0.00,385,Wunderground v.1.15,2013-08-14 17:36:00,
2013-08-14 13:38:00,66.2,51.9,30.03,NW,305,6.0,9.0,60,0.00,,,0.00,504,Wunderground v.1.15,2013-08-14 17:38:00,
2013-08-14 13:42:00,66.6,51.8,30.03,NW,311,6.0,9.0,59,0.00,,,0.00,582,Wunderground v.1.15,2013-08-14 17:42:00,
2013-08-14 13:43:00,66.6,51.8,30.02,WSW,257,6.0,9.0,59,0.00,,,0.00,582,Wunderground v.1.15,2013-08-14 17:43:00,
2013-08-14 13:44:00,66.6,51.8,30.02,NNW,336,6.0,9.0,59,0.00,,,0.00,445,Wunderground v.1.15,2013-08-14 17:44:00,
2013-08-14 13:47:00,66.7,51.9,30.02,North,9,6.0,9.0,59,0.00,,,0.00,413,Wunderground v.1.15,2013-08-14 17:47:00,
2013-08-14 13:48:00,66.8,51.1,30.02,NW,317,6.0,9.0,57,0.00,,,0.00,417,Wunderground v.1.15,2013-08-14 17:48:00,
2013-08-14 13:53:00,67.0,51.3,30.02,NNW,347,6.0,9.0,57,0.00,,,0.00,457,Wunderground v.1.15,2013-08-14 17:53:00,
2013-08-14 13:54:00,67.0,51.3,30.02,WNW,290,6.0,9.0,57,0.00,,,0.00,450,Wunderground v.1.15,2013-08-14 17:54:00,
2013-08-14 13:55:00,67.0,50.8,30.02,NW,316,6.0,9.0,56,0.00,,,0.00,450,Wunderground v.1.15,2013-08-14 17:55:00,
2013-08-14 13:57:00,67.0,50.8,30.02,WSW,240,6.0,9.0,56,0.00,,,0.00,464,Wunderground v.1.15,2013-08-14 17:57:00,
2013-08-14 13:58:00,67.1,51.4,30.02,WNW,296,6.0,9.0,57,0.00,,,0.00,462,Wunderground v.1.15,2013-08-14 17:58:00,
2013-08-14 13:59:00,67.0,50.3,30.02,WNW,288,6.0,9.0,55,0.00,,,0.00,441,Wunderground v.1.15,2013-08-14 17:59:00,
2013-08-14 14:00:00,67.0,50.8,30.02,WNW,296,6.0,11.0,56,0.00,,,0.00,448,Wunderground v.1.15,2013-08-14 18:00:00,
2013-08-14 14:03:00,66.9,50.7,30.03,West,279,6.0,11.0,56,0.00,,,0.00,522,Wunderground v.1.15,2013-08-14 18:03:00,
2013-08-14 14:05:00,67.0,50.8,30.03,North,355,6.0,11.0,56,0.00,,,0.00,524,Wunderground v.1.15,2013-08-14 18:05:00,
2013-08-14 14:06:00,67.1,50.9,30.03,North,5,6.0,11.0,56,0.00,,,0.00,524,Wunderground v.1.15,2013-08-14 18:06:00,
2013-08-14 14:10:00,67.8,51.5,30.03,NNW,329,6.0,6.0,56,0.00,,,0.00,487,Wunderground v.1.15,2013-08-14 18:10:00,
2013-08-14 14:11:00,68.0,52.2,30.03,WNW,291,6.0,11.0,57,0.00,,,0.00,487,Wunderground v.1.15,2013-08-14 18:11:00,
2013-08-14 14:16:00,67.6,50.4,30.02,NNW,340,6.0,11.0,54,0.00,,,0.00,462,Wunderground v.1.15,2013-08-14 18:16:00,
2013-08-14 14:17:00,67.6,50.9,30.03,NNW,327,7.0,11.0,55,0.00,,,0.00,483,Wunderground v.1.15,2013-08-14 18:17:00,
2013-08-14 14:18:00,67.6,50.4,30.03,NNW,346,7.0,11.0,54,0.00,,,0.00,475,Wunderground v.1.15,2013-08-14 18:18:00,
2013-08-14 14:23:00,67.7,51.4,30.03,NW,311,6.0,11.0,56,0.00,,,0.00,568,Wunderground v.1.15,2013-08-14 18:23:00,
2013-08-14 14:26:00,67.9,51.1,30.03,NW,322,5.0,11.0,55,0.00,,,0.00,403,Wunderground v.1.15,2013-08-14 18:26:00,
2013-08-14 14:29:00,67.9,50.6,30.03,North,355,5.0,11.0,54,0.00,,,0.00,369,Wunderground v.1.15,2013-08-14 18:29:00,
2013-08-14 14:30:00,67.8,50.5,30.03,WNW,293,5.0,11.0,54,0.00,,,0.00,367,Wunderground v.1.15,2013-08-14 18:30:00,
2013-08-14 14:31:00,67.7,50.9,30.03,West,280,5.0,11.0,55,0.00,,,0.00,362,Wunderground v.1.15,2013-08-14 18:31:00,
2013-08-14 14:34:00,67.6,51.3,30.03,NNW,329,5.0,11.0,56,0.00,,,0.00,316,Wunderground v.1.15,2013-08-14 18:34:00,
2013-08-14 14:35:00,67.6,51.3,30.03,WNW,292,5.0,11.0,56,0.00,,,0.00,316,Wunderground v.1.15,2013-08-14 18:35:00,
2013-08-14 14:39:00,67.6,51.3,30.03,NNW,345,4.0,11.0,56,0.00,,,0.00,295,Wunderground v.1.15,2013-08-14 18:39:00,
2013-08-14 14:40:00,67.6,51.8,30.03,West,280,4.0,11.0,57,0.00,,,0.00,295,Wunderground v.1.15,2013-08-14 18:40:00,
2013-08-14 14:41:00,67.6,51.8,30.03,NW,306,4.0,11.0,57,0.00,,,0.00,299,Wunderground v.1.15,2013-08-14 18:41:00,
2013-08-14 14:42:00,67.6,51.3,30.03,NW,318,4.0,11.0,56,0.00,,,0.00,306,Wunderground v.1.15,2013-08-14 18:42:00,
2013-08-14 14:46:00,67.5,51.2,30.03,North,355,4.0,11.0,56,0.00,,,0.00,339,Wunderground v.1.15,2013-08-14 18:46:00,
2013-08-14 14:50:00,67.5,51.2,30.03,WNW,293,5.0,5.0,56,0.00,,,0.00,350,Wunderground v.1.15,2013-08-14 18:50:00,
2013-08-14 14:53:00,67.5,51.7,30.03,West,268,4.0,11.0,57,0.00,,,0.00,334,Wunderground v.1.15,2013-08-14 18:53:00,
2013-08-14 14:56:00,67.5,50.8,30.03,West,275,4.0,11.0,55,0.00,,,0.00,343,Wunderground v.1.15,2013-08-14 18:56:00,
2013-08-14 14:58:00,67.5,51.2,30.03,North,355,4.0,11.0,56,0.00,,,0.00,339,Wunderground v.1.15,2013-08-14 18:58:00,
2013-08-14 15:02:00,67.6,51.8,30.03,SSW,207,4.0,7.0,57,0.00,,,0.00,353,Wunderground v.1.15,2013-08-14 19:02:00,
2013-08-14 15:04:00,67.7,51.9,30.03,NW,326,4.0,7.0,57,0.00,,,0.00,339,Wunderground v.1.15,2013-08-14 19:04:00,
2013-08-14 15:06:00,67.8,51.5,30.03,NNW,346,3.0,7.0,56,0.00,,,0.00,329,Wunderground v.1.15,2013-08-14 19:06:00,
2013-08-14 15:08:00,67.8,51.5,30.04,North,355,4.0,7.0,56,0.00,,,0.00,318,Wunderground v.1.15,2013-08-14 19:08:00,
2013-08-14 15:13:00,67.6,51.3,30.03,NW,304,5.0,7.0,56,0.00,,,0.00,336,Wunderground v.1.15,2013-08-14 19:13:00,
2013-08-14 15:14:00,67.6,51.3,30.03,SSW,210,5.0,7.0,56,0.00,,,0.00,348,Wunderground v.1.15,2013-08-14 19:14:00,
2013-08-14 15:18:00,67.5,50.8,30.03,West,265,5.0,7.0,55,0.00,,,0.00,381,Wunderground v.1.15,2013-08-14 19:18:00,
2013-08-14 15:19:00,67.5,51.7,30.03,North,355,4.0,4.0,57,0.00,,,0.00,371,Wunderground v.1.15,2013-08-14 19:19:00,
2013-08-14 15:25:00,67.6,51.3,30.03,West,271,4.0,8.0,56,0.00,,,0.00,396,Wunderground v.1.15,2013-08-14 19:25:00,
2013-08-14 15:26:00,67.6,51.3,30.03,NNW,328,4.0,8.0,56,0.00,,,0.00,429,Wunderground v.1.15,2013-08-14 19:26:00,
2013-08-14 15:30:00,67.8,51.5,30.03,NW,325,4.0,7.0,56,0.00,,,0.00,411,Wunderground v.1.15,2013-08-14 19:30:00,
2013-08-14 15:33:00,68.0,51.7,30.03,NNW,336,4.0,7.0,56,0.00,,,0.00,434,Wunderground v.1.15,2013-08-14 19:33:00,
2013-08-14 15:34:00,68.1,52.3,30.03,WNW,285,4.0,7.0,57,0.00,,,0.00,438,Wunderground v.1.15,2013-08-14 19:34:00,
2013-08-14 15:36:00,68.2,52.9,30.03,WNW,282,4.0,7.0,58,0.00,,,0.00,381,Wunderground v.1.15,2013-08-14 19:36:00,
2013-08-14 15:38:00,68.3,51.5,30.03,NW,313,4.0,7.0,55,0.00,,,0.00,454,Wunderground v.1.15,2013-08-14 19:38:00,
2013-08-14 15:41:00,68.4,52.1,30.03,NW,315,4.0,5.0,56,0.00,,,0.00,497,Wunderground v.1.15,2013-08-14 19:41:00,
2013-08-14 15:43:00,68.6,52.8,30.03,WNW,298,4.0,7.0,57,0.00,,,0.00,438,Wunderground v.1.15,2013-08-14 19:43:00,
2013-08-14 15:44:00,68.7,51.9,30.03,West,274,4.0,7.0,55,0.00,,,0.00,438,Wunderground v.1.15,2013-08-14 19:44:00,
2013-08-14 15:48:00,68.4,51.1,30.03,NNE,20,5.0,8.0,54,0.00,,,0.00,230,Wunderground v.1.15,2013-08-14 19:48:00,
2013-08-14 15:49:00,68.4,51.1,30.03,North,355,5.0,8.0,54,0.00,,,0.00,230,Wunderground v.1.15,2013-08-14 19:49:00,
2013-08-14 15:51:00,68.4,51.6,30.03,West,268,5.0,7.0,55,0.00,,,0.00,230,Wunderground v.1.15,2013-08-14 19:51:00,
2013-08-14 15:52:00,68.5,50.7,30.03,WSW,243,5.0,7.0,53,0.00,,,0.00,612,Wunderground v.1.15,2013-08-14 19:52:00,
2013-08-14 15:54:00,68.5,51.7,30.03,South,172,5.0,7.0,55,0.00,,,0.00,302,Wunderground v.1.15,2013-08-14 19:54:00,
2013-08-14 15:55:00,68.6,51.8,30.03,WNW,299,5.0,7.0,55,0.00,,,0.00,341,Wunderground v.1.15,2013-08-14 19:55:00,
2013-08-14 15:58:00,68.6,51.3,30.03,NW,325,4.0,7.0,54,0.00,,,0.00,295,Wunderground v.1.15,2013-08-14 19:58:00,
2013-08-14 16:00:00,68.8,52.0,30.03,NNE,24,4.0,8.0,55,0.00,,,0.00,279,Wunderground v.1.15,2013-08-14 20:00:00,
2013-08-14 16:02:00,68.8,52.0,30.03,WNW,300,4.0,8.0,55,0.00,,,0.00,248,Wunderground v.1.15,2013-08-14 20:02:00,
2013-08-14 16:03:00,68.8,52.0,30.03,WNW,296,4.0,8.0,55,0.00,,,0.00,236,Wunderground v.1.15,2013-08-14 20:03:00,
2013-08-14 16:05:00,68.6,51.3,30.03,WNW,303,3.0,8.0,54,0.00,,,0.00,227,Wunderground v.1.15,2013-08-14 20:05:00,
2013-08-14 16:07:00,68.5,51.7,30.03,West,278,3.0,8.0,55,0.00,,,0.00,225,Wunderground v.1.15,2013-08-14 20:07:00,
2013-08-14 16:09:00,68.4,51.6,30.03,West,267,3.0,8.0,55,0.00,,,0.00,216,Wunderground v.1.15,2013-08-14 20:09:00,
2013-08-14 16:11:00,68.4,52.1,30.03,NNW,333,3.0,4.0,56,0.00,,,0.00,234,Wunderground v.1.15,2013-08-14 20:11:00,
2013-08-14 16:15:00,68.6,52.3,30.04,NW,317,3.0,8.0,56,0.00,,,0.00,327,Wunderground v.1.15,2013-08-14 20:15:00,
2013-08-14 16:17:00,68.7,51.4,30.03,NW,306,3.0,8.0,54,0.00,,,0.00,288,Wunderground v.1.15,2013-08-14 20:17:00,
2013-08-14 16:18:00,68.7,51.4,30.03,WNW,302,4.0,8.0,54,0.00,,,0.00,288,Wunderground v.1.15,2013-08-14 20:18:00,
2013-08-14 16:19:00,68.7,51.9,30.03,WNW,291,4.0,8.0,55,0.00,,,0.00,287,Wunderground v.1.15,2013-08-14 20:19:00,
2013-08-14 16:23:00,68.7,51.9,30.03,NW,313,4.0,8.0,55,0.00,,,0.00,304,Wunderground v.1.15,2013-08-14 20:23:00,
2013-08-14 16:26:00,68.8,52.0,30.03,WNW,282,3.0,8.0,55,0.00,,,0.00,295,Wunderground v.1.15,2013-08-14 20:26:00,
2013-08-14 16:29:00,68.8,52.0,30.03,WNW,296,3.0,8.0,55,0.00,,,0.00,264,Wunderground v.1.15,2013-08-14 20:29:00,
2013-08-14 16:33:00,68.8,51.0,30.03,NW,317,3.0,8.0,53,0.00,,,0.00,250,Wunderground v.1.15,2013-08-14 20:33:00,
2013-08-14 16:36:00,68.6,51.3,30.03,NW,309,4.0,8.0,54,0.00,,,0.00,248,Wunderground v.1.15,2013-08-14 20:36:00,
2013-08-14 16:38:00,68.6,50.8,30.03,WNW,302,4.0,8.0,53,0.00,,,0.00,297,Wunderground v.1.15,2013-08-14 20:38:00,
2013-08-14 16:39:00,68.6,51.3,30.03,NNW,340,4.0,8.0,54,0.00,,,0.00,394,Wunderground v.1.15,2013-08-14 20:39:00,
2013-08-14 16:41:00,68.8,52.0,30.03,NW,317,4.0,8.0,55,0.00,,,0.00,666,Wunderground v.1.15,2013-08-14 20:41:00,
2013-08-14 16:43:00,69.0,51.7,30.03,NW,321,4.0,8.0,54,0.00,,,0.00,610,Wunderground v.1.15,2013-08-14 20:43:00,
2013-08-14 16:46:00,69.3,51.9,30.03,NNE,24,3.0,8.0,54,0.00,,,0.00,612,Wunderground v.1.15,2013-08-14 20:46:00,
2013-08-14 16:47:00,69.4,52.0,30.03,WSW,254,3.0,8.0,54,0.00,,,0.00,631,Wunderground v.1.15,2013-08-14 20:47:00,
2013-08-14 16:48:00,69.5,52.1,30.03,North,355,3.0,8.0,54,0.00,,,0.00,652,Wunderground v.1.15,2013-08-14 20:48:00,
2013-08-14 16:49:00,69.7,52.3,30.03,West,275,3.0,8.0,54,0.00,,,0.00,670,Wunderground v.1.15,2013-08-14 20:49:00,
2013-08-14 16:50:00,69.9,52.0,30.03,WNW,300,3.0,8.0,53,0.00,,,0.00,671,Wunderground v.1.15,2013-08-14 20:50:00,
2013-08-14 16:55:00,70.5,52.0,30.03,NNW,329,4.0,8.0,52,0.00,,,0.00,631,Wunderground v.1.15,2013-08-14 20:55:00,
2013-08-14 16:56:00,70.5,51.5,30.03,WNW,295,4.0,8.0,51,0.00,,,0.00,160,Wunderground v.1.15,2013-08-14 20:56:00,
2013-08-14 16:57:00,70.4,51.4,30.03,NNW,340,4.0,8.0,51,0.00,,,0.00,149,Wunderground v.1.15,2013-08-14 20:57:00,
2013-08-14 17:00:00,70.2,50.7,30.03,NW,312,5.0,8.0,50,0.00,,,0.00,573,Wunderground v.1.15,2013-08-14 21:00:00,
2013-08-14 17:01:00,70.2,51.2,30.03,WNW,289,5.0,8.0,51,0.00,,,0.00,573,Wunderground v.1.15,2013-08-14 21:01:00,
2013-08-14 17:06:00,70.0,50.0,30.03,West,279,5.0,9.0,49,0.00,,,0.00,176,Wunderground v.1.15,2013-08-14 21:06:00,
2013-08-14 17:07:00,70.0,50.5,30.03,North,360,5.0,9.0,50,0.00,,,0.00,195,Wunderground v.1.15,2013-08-14 21:07:00,
2013-08-14 17:10:00,69.9,51.5,30.03,NW,308,5.0,8.0,52,0.00,,,0.00,195,Wunderground v.1.15,2013-08-14 21:10:00,
2013-08-14 17:13:00,70.1,51.1,30.03,North,355,5.0,8.0,51,0.00,,,0.00,195,Wunderground v.1.15,2013-08-14 21:13:00,
2013-08-14 17:14:00,70.1,51.1,30.03,NNW,336,5.0,8.0,51,0.00,,,0.00,559,Wunderground v.1.15,2013-08-14 21:14:00,
2013-08-14 17:15:00,70.2,50.7,30.03,NW,311,5.0,8.0,50,0.00,,,0.00,613,Wunderground v.1.15,2013-08-14 21:15:00,
2013-08-14 17:20:00,70.3,51.3,30.03,NNE,29,6.0,6.0,51,0.00,,,0.00,183,Wunderground v.1.15,2013-08-14 21:20:00,
2013-08-14 17:21:00,70.2,51.2,30.03,NW,318,6.0,8.0,51,0.00,,,0.00,202,Wunderground v.1.15,2013-08-14 21:21:00,
2013-08-14 17:25:00,70.1,51.1,30.03,NW,321,5.0,8.0,51,0.00,,,0.00,587,Wunderground v.1.15,2013-08-14 21:25:00,
2013-08-14 17:27:00,70.2,51.2,30.03,NW,311,5.0,8.0,51,0.00,,,0.00,420,Wunderground v.1.15,2013-08-14 21:27:00,
2013-08-14 17:28:00,70.3,51.8,30.03,WNW,293,4.0,8.0,52,0.00,,,0.00,420,Wunderground v.1.15,2013-08-14 21:28:00,
2013-08-14 17:30:00,70.6,52.6,30.03,NE,52,4.0,8.0,53,0.00,,,0.00,204,Wunderground v.1.15,2013-08-14 21:30:00,
2013-08-14 17:33:00,71.1,50.4,30.03,SSE,162,3.0,8.0,48,0.00,,,0.00,174,Wunderground v.1.15,2013-08-14 21:33:00,
2013-08-14 17:36:00,71.3,52.2,30.03,North,355,3.0,8.0,51,0.00,,,0.00,169,Wunderground v.1.15,2013-08-14 21:36:00,
2013-08-14 17:38:00,71.4,51.8,30.03,North,5,3.0,8.0,50,0.00,,,0.00,160,Wunderground v.1.15,2013-08-14 21:38:00,
2013-08-14 17:39:00,71.5,51.3,30.03,WNW,288,4.0,8.0,49,0.00,,,0.00,155,Wunderground v.1.15,2013-08-14 21:39:00,
2013-08-14 17:41:00,71.5,51.3,30.03,West,280,4.0,6.0,49,0.00,,,0.00,153,Wunderground v.1.15,2013-08-14 21:41:00,
2013-08-14 17:42:00,71.5,51.3,30.04,WNW,298,4.0,9.0,49,0.00,,,0.00,151,Wunderground v.1.15,2013-08-14 21:42:00,
2013-08-14 17:43:00,71.3,50.6,30.04,NW,322,4.0,9.0,48,0.00,,,0.00,142,Wunderground v.1.15,2013-08-14 21:43:00,
2013-08-14 17:46:00,71.1,50.4,30.04,WNW,302,5.0,9.0,48,0.00,,,0.00,141,Wunderground v.1.15,2013-08-14 21:46:00,
2013-08-14 17:49:00,71.0,50.9,30.04,NNE,19,5.0,9.0,49,0.00,,,0.00,128,Wunderground v.1.15,2013-08-14 21:49:00,
2013-08-14 17:50:00,71.0,50.9,30.04,North,355,5.0,8.0,49,0.00,,,0.00,137,Wunderground v.1.15,2013-08-14 21:50:00,
2013-08-14 17:51:00,71.0,50.9,30.04,WSW,254,6.0,8.0,49,0.00,,,0.00,141,Wunderground v.1.15,2013-08-14 21:51:00,
2013-08-14 17:53:00,70.9,50.8,30.04,WNW,298,6.0,8.0,49,0.00,,,0.00,146,Wunderground v.1.15,2013-08-14 21:53:00,
2013-08-14 17:55:00,70.9,50.8,30.04,WNW,301,6.0,8.0,49,0.00,,,0.00,160,Wunderground v.1.15,2013-08-14 21:55:00,
2013-08-14 17:56:00,70.9,51.3,30.04,NW,325,6.0,8.0,50,0.00,,,0.00,151,Wunderground v.1.15,2013-08-14 21:56:00,
2013-08-14 17:57:00,70.9,50.8,30.04,WNW,302,6.0,9.0,49,0.00,,,0.00,139,Wunderground v.1.15,2013-08-14 21:57:00,
2013-08-14 17:59:00,70.8,50.7,30.04,NW,305,6.0,9.0,49,0.00,,,0.00,100,Wunderground v.1.15,2013-08-14 21:59:00,
2013-08-14 18:00:00,70.7,51.1,30.04,NNW,327,6.0,6.0,50,0.00,,,0.00,84,Wunderground v.1.15,2013-08-14 22:00:00,
2013-08-14 18:03:00,70.6,50.5,30.04,NW,316,6.0,11.0,49,0.00,,,0.00,46,Wunderground v.1.15,2013-08-14 22:03:00,
2013-08-14 18:04:00,70.5,51.0,30.04,WNW,288,6.0,11.0,50,0.00,,,0.00,42,Wunderground v.1.15,2013-08-14 22:04:00,
2013-08-14 18:05:00,70.4,50.9,30.04,NNW,346,6.0,11.0,50,0.00,,,0.00,40,Wunderground v.1.15,2013-08-14 22:05:00,
2013-08-14 18:07:00,70.4,51.4,30.04,WNW,298,6.0,11.0,51,0.00,,,0.00,37,Wunderground v.1.15,2013-08-14 22:07:00,
2013-08-14 18:10:00,70.3,50.8,30.04,WNW,301,5.0,5.0,50,0.00,,,0.00,35,Wunderground v.1.15,2013-08-14 22:10:00,
2013-08-14 18:11:00,70.3,51.3,30.04,WNW,287,5.0,11.0,51,0.00,,,0.00,35,Wunderground v.1.15,2013-08-14 22:11:00,
2013-08-14 18:13:00,70.3,50.8,30.04,NW,304,5.0,11.0,50,0.00,,,0.00,33,Wunderground v.1.15,2013-08-14 22:13:00,
2013-08-14 18:14:00,70.2,50.7,30.04,North,360,5.0,11.0,50,0.00,,,0.00,35,Wunderground v.1.15,2013-08-14 22:14:00,
2013-08-14 18:17:00,70.1,51.1,30.04,NW,314,5.0,11.0,51,0.00,,,0.00,37,Wunderground v.1.15,2013-08-14 22:17:00,
2013-08-14 18:18:00,70.1,51.1,30.04,WNW,292,4.0,11.0,51,0.00,,,0.00,39,Wunderground v.1.15,2013-08-14 22:18:00,
2013-08-14 18:20:00,70.1,51.7,30.04,WNW,289,4.0,11.0,52,0.00,,,0.00,54,Wunderground v.1.15,2013-08-14 22:20:00,
2013-08-14 18:24:00,70.0,50.5,30.04,West,272,4.0,11.0,50,0.00,,,0.00,63,Wunderground v.1.15,2013-08-14 22:24:00,
2013-08-14 18:25:00,70.0,51.0,30.04,WNW,292,4.0,11.0,51,0.00,,,0.00,60,Wunderground v.1.15,2013-08-14 22:25:00,
2013-08-14 18:28:00,69.9,50.9,30.04,WSW,257,4.0,11.0,51,0.00,,,0.00,44,Wunderground v.1.15,2013-08-14 22:28:00,
2013-08-14 18:30:00,69.9,51.5,30.04,NW,313,4.0,11.0,52,0.00,,,0.00,37,Wunderground v.1.15,2013-08-14 22:30:00,
2013-08-14 18:32:00,69.9,50.9,30.04,NNW,346,4.0,11.0,51,0.00,,,0.00,33,Wunderground v.1.15,2013-08-14 22:32:00,
2013-08-14 18:35:00,69.7,51.3,30.04,NW,313,4.0,11.0,52,0.00,,,0.00,30,Wunderground v.1.15,2013-08-14 22:35:00,
2013-08-14 18:36:00,69.7,51.8,30.04,WNW,284,4.0,11.0,53,0.00,,,0.00,30,Wunderground v.1.15,2013-08-14 22:36:00,
2013-08-14 18:40:00,69.6,51.7,30.04,NNW,336,4.0,11.0,53,0.00,,,0.00,32,Wunderground v.1.15,2013-08-14 22:40:00,
2013-08-14 18:41:00,69.6,51.7,30.05,West,272,4.0,11.0,53,0.00,,,0.00,32,Wunderground v.1.15,2013-08-14 22:41:00,
2013-08-14 18:42:00,69.6,51.2,30.04,NNW,330,4.0,11.0,52,0.00,,,0.00,32,Wunderground v.1.15,2013-08-14 22:42:00,
2013-08-14 18:44:00,69.6,51.2,30.05,NNW,333,4.0,11.0,52,0.00,,,0.00,33,Wunderground v.1.15,2013-08-14 22:44:00,
2013-08-14 18:47:00,69.5,51.6,30.05,NNW,339,4.0,11.0,53,0.00,,,0.00,35,Wunderground v.1.15,2013-08-14 22:47:00,
2013-08-14 18:48:00,69.4,51.5,30.05,NNW,333,4.0,11.0,53,0.00,,,0.00,37,Wunderground v.1.15,2013-08-14 22:48:00,
2013-08-14 18:52:00,69.4,52.0,30.05,WNW,296,3.0,11.0,54,0.00,,,0.00,37,Wunderground v.1.15,2013-08-14 22:52:00,
2013-08-14 18:53:00,69.5,51.6,30.05,NNW,327,4.0,11.0,53,0.00,,,0.00,39,Wunderground v.1.15,2013-08-14 22:53:00,
2013-08-14 18:54:00,69.5,51.6,30.04,WNW,302,3.0,11.0,53,0.00,,,0.00,28,Wunderground v.1.15,2013-08-14 22:54:00,
2013-08-14 18:56:00,69.4,52.0,30.04,NNW,338,3.0,11.0,54,0.00,,,0.00,26,Wunderground v.1.15,2013-08-14 22:56:00,
2013-08-14 19:03:00,69.4,51.5,30.05,WNW,301,2.0,5.0,53,0.00,,,0.00,44,Wunderground v.1.15,2013-08-14 23:03:00,
2013-08-14 19:05:00,69.4,52.0,30.05,NNW,347,2.0,5.0,54,0.00,,,0.00,46,Wunderground v.1.15,2013-08-14 23:05:00,
2013-08-14 19:06:00,69.4,51.5,30.04,North,355,2.0,5.0,53,0.00,,,0.00,54,Wunderground v.1.15,2013-08-14 23:06:00,
2013-08-14 19:07:00,69.4,51.5,30.04,North,350,2.0,5.0,53,0.00,,,0.00,54,Wunderground v.1.15,2013-08-14 23:07:00,
2013-08-14 19:08:00,69.4,51.5,30.04,NNW,329,2.0,5.0,53,0.00,,,0.00,49,Wunderground v.1.15,2013-08-14 23:08:00,
2013-08-14 19:09:00,69.4,52.5,30.05,NNW,329,2.0,5.0,55,0.00,,,0.00,74,Wunderground v.1.15,2013-08-14 23:09:00,
2013-08-14 19:12:00,69.4,52.5,30.04,NW,317,2.0,5.0,55,0.00,,,0.00,56,Wunderground v.1.15,2013-08-14 23:12:00,
2013-08-14 19:13:00,69.5,52.6,30.04,NNW,331,2.0,5.0,55,0.00,,,0.00,74,Wunderground v.1.15,2013-08-14 23:13:00,
2013-08-14 19:14:00,69.5,52.6,30.05,NW,314,2.0,5.0,55,0.00,,,0.00,70,Wunderground v.1.15,2013-08-14 23:14:00,
2013-08-14 19:18:00,69.4,51.5,30.05,WNW,297,2.0,5.0,53,0.00,,,0.00,56,Wunderground v.1.15,2013-08-14 23:18:00,
2013-08-14 19:19:00,69.4,51.5,30.05,NNW,340,2.0,5.0,53,0.00,,,0.00,40,Wunderground v.1.15,2013-08-14 23:19:00,
2013-08-14 19:20:00,69.4,52.0,30.05,NW,309,2.0,2.0,54,0.00,,,0.00,35,Wunderground v.1.15,2013-08-14 23:20:00,
2013-08-14 19:22:00,69.3,51.9,30.05,West,278,2.0,5.0,54,0.00,,,0.00,30,Wunderground v.1.15,2013-08-14 23:22:00,
2013-08-14 19:23:00,69.2,51.8,30.05,WNW,288,2.0,5.0,54,0.00,,,0.00,30,Wunderground v.1.15,2013-08-14 23:23:00,
2013-08-14 19:24:00,69.2,52.3,30.05,WNW,290,2.0,5.0,55,0.00,,,0.00,30,Wunderground v.1.15,2013-08-14 23:24:00,
2013-08-14 19:29:00,68.9,51.1,30.05,NNW,342,2.0,5.0,53,0.00,,,0.00,19,Wunderground v.1.15,2013-08-14 23:29:00,
2013-08-14 19:30:00,68.8,51.5,30.05,NW,309,2.0,5.0,54,0.00,,,0.00,19,Wunderground v.1.15,2013-08-14 23:30:00,
2013-08-14 19:32:00,68.6,51.8,30.05,WNW,292,2.0,5.0,55,0.00,,,0.00,19,Wunderground v.1.15,2013-08-14 23:32:00,
2013-08-14 19:35:00,68.5,52.2,30.05,WNW,294,2.0,5.0,56,0.00,,,0.00,18,Wunderground v.1.15,2013-08-14 23:35:00,
2013-08-14 19:36:00,68.4,52.1,30.05,WNW,298,2.0,5.0,56,0.00,,,0.00,16,Wunderground v.1.15,2013-08-14 23:36:00,
2013-08-14 19:37:00,68.3,52.0,30.05,WNW,295,2.0,5.0,56,0.00,,,0.00,16,Wunderground v.1.15,2013-08-14 23:37:00,
2013-08-14 19:38:00,68.3,52.0,30.05,WNW,295,2.0,5.0,56,0.00,,,0.00,14,Wunderground v.1.15,2013-08-14 23:38:00,
2013-08-14 19:41:00,68.1,52.3,30.05,NW,314,1.0,5.0,57,0.00,,,0.00,14,Wunderground v.1.15,2013-08-14 23:41:00,
2013-08-14 19:42:00,68.0,51.7,30.05,NW,314,1.0,5.0,56,0.00,,,0.00,12,Wunderground v.1.15,2013-08-14 23:42:00,
2013-08-14 19:44:00,67.8,52.0,30.05,WNW,290,1.0,5.0,57,0.00,,,0.00,12,Wunderground v.1.15,2013-08-14 23:44:00,
2013-08-14 19:46:00,67.7,52.9,30.05,WNW,290,1.0,5.0,59,0.00,,,0.00,12,Wunderground v.1.15,2013-08-14 23:46:00,
2013-08-14 19:50:00,67.4,52.6,30.06,WNW,292,1.0,1.0,59,0.00,,,0.00,11,Wunderground v.1.15,2013-08-14 23:50:00,
2013-08-14 19:51:00,67.3,52.5,30.06,WNW,292,1.0,5.0,59,0.00,,,0.00,9,Wunderground v.1.15,2013-08-14 23:51:00,
2013-08-14 19:55:00,67.0,52.7,30.06,WNW,292,0.0,5.0,60,0.00,,,0.00,7,Wunderground v.1.15,2013-08-14 23:55:00,
2013-08-14 19:56:00,67.0,52.7,30.06,WNW,292,0.0,5.0,60,0.00,,,0.00,7,Wunderground v.1.15,2013-08-14 23:56:00,
2013-08-14 19:58:00,66.8,52.5,30.06,WNW,292,0.0,5.0,60,0.00,,,0.00,7,Wunderground v.1.15,2013-08-14 23:58:00,
2013-08-14 19:59:00,66.8,52.5,30.06,WNW,292,0.0,5.0,60,0.00,,,0.00,5,Wunderground v.1.15,2013-08-14 23:59:00,
2013-08-14 20:00:00,66.7,52.8,30.06,WNW,292,0.0,1.0,61,0.00,,,0.00,5,Wunderground v.1.15,2013-08-15 00:00:00,
2013-08-14 20:02:00,66.5,52.6,30.06,WNW,292,0.0,1.0,61,0.00,,,0.00,5,Wunderground v.1.15,2013-08-15 00:02:00,
2013-08-14 20:05:00,66.2,52.3,30.06,WNW,292,0.0,1.0,61,0.00,,,0.00,0,Wunderground v.1.15,2013-08-15 00:05:00,
2013-08-14 20:06:00,66.2,52.3,30.06,WNW,292,0.0,1.0,61,0.00,,,0.00,0,Wunderground v.1.15,2013-08-15 00:06:00,
2013-08-14 20:07:00,66.1,52.3,30.06,WNW,292,0.0,1.0,61,0.00,,,0.00,0,Wunderground v.1.15,2013-08-15 00:07:00,
2013-08-14 20:09:00,65.9,52.1,30.06,NNW,331,1.0,1.0,61,0.00,,,0.00,0,Wunderground v.1.15,2013-08-15 00:09:00,
2013-08-14 20:13:00,65.8,52.0,30.07,NW,315,1.0,1.0,61,0.00,,,0.00,0,Wunderground v.1.15,2013-08-15 00:13:00,
2013-08-14 20:16:00,65.6,52.2,30.07,NW,315,1.0,1.0,62,0.00,,,0.00,0,Wunderground v.1.15,2013-08-15 00:16:00,
2013-08-14 20:17:00,65.6,52.2,30.07,NW,315,1.0,1.0,62,0.00,,,0.00,0,Wunderground v.1.15,2013-08-15 00:17:00,
2013-08-14 20:20:00,65.4,52.0,30.07,NW,315,1.0,1.0,62,0.00,,,0.00,0,Wunderground v.1.15,2013-08-15 00:20:00,
2013-08-14 20:21:00,65.4,52.0,30.07,NW,315,1.0,1.0,62,0.00,,,0.00,0,Wunderground v.1.15,2013-08-15 00:21:00,
2013-08-14 20:25:00,65.2,51.8,30.07,WNW,303,1.0,1.0,62,0.00,,,0.00,0,Wunderground v.1.15,2013-08-15 00:25:00,
2013-08-14 20:26:00,65.1,51.8,30.07,WNW,303,1.0,1.0,62,0.00,,,0.00,0,Wunderground v.1.15,2013-08-15 00:26:00,
2013-08-14 20:27:00,65.1,52.2,30.07,WNW,303,1.0,1.0,63,0.00,,,0.00,0,Wunderground v.1.15,2013-08-15 00:27:00,
2013-08-14 20:32:00,64.8,52.3,30.07,WNW,303,1.0,1.0,64,0.00,,,0.00,0,Wunderground v.1.15,2013-08-15 00:32:00,
2013-08-14 20:35:00,64.6,52.1,30.07,WNW,303,1.0,1.0,64,0.00,,,0.00,0,Wunderground v.1.15,2013-08-15 00:35:00,
2013-08-14 20:38:00,64.4,52.0,30.08,WNW,303,0.0,1.0,64,0.00,,,0.00,0,Wunderground v.1.15,2013-08-15 00:38:00,
2013-08-14 20:41:00,64.3,51.9,30.08,WNW,303,0.0,1.0,64,0.00,,,0.00,0,Wunderground v.1.15,2013-08-15 00:41:00,
2013-08-14 20:42:00,64.2,52.2,30.08,WNW,303,0.0,1.0,65,0.00,,,0.00,0,Wunderground v.1.15,2013-08-15 00:42:00,
2013-08-14 20:43:00,64.1,52.1,30.08,WNW,303,0.0,1.0,65,0.00,,,0.00,0,Wunderground v.1.15,2013-08-15 00:43:00,
2013-08-14 20:47:00,63.9,52.3,30.08,NNW,344,0.0,1.0,66,0.00,,,0.00,0,Wunderground v.1.15,2013-08-15 00:47:00,
2013-08-14 20:49:00,63.9,52.3,30.08,NW,315,0.0,1.0,66,0.00,,,0.00,0,Wunderground v.1.15,2013-08-15 00:49:00,
2013-08-14 20:52:00,63.7,52.1,30.08,NW,308,1.0,1.0,66,0.00,,,0.00,0,Wunderground v.1.15,2013-08-15 00:52:00,
2013-08-14 20:55:00,63.6,52.0,30.09,NW,308,1.0,1.0,66,0.00,,,0.00,0,Wunderground v.1.15,2013-08-15 00:55:00,
2013-08-14 20:56:00,63.6,52.0,30.09,NW,308,1.0,1.0,66,0.00,,,0.00,0,Wunderground v.1.15,2013-08-15 00:56:00,
2013-08-14 20:58:00,63.6,52.0,30.09,NW,308,1.0,1.0,66,0.00,,,0.00,0,Wunderground v.1.15,2013-08-15 00:58:00,
2013-08-14 21:00:00,63.5,51.9,30.09,NW,324,1.0,3.0,66,0.00,,,0.00,0,Wunderground v.1.15,2013-08-15 01:00:00,
2013-08-14 21:03:00,63.5,51.9,30.09,WNW,289,1.0,3.0,66,0.00,,,0.00,0,Wunderground v.1.15,2013-08-15 01:03:00,
2013-08-14 21:04:00,63.5,51.9,30.09,NNW,338,1.0,3.0,66,0.00,,,0.00,0,Wunderground v.1.15,2013-08-15 01:04:00,
2013-08-14 21:06:00,63.5,51.5,30.09,WNW,297,1.0,3.0,65,0.00,,,0.00,0,Wunderground v.1.15,2013-08-15 01:06:00,
2013-08-14 21:07:00,63.5,51.9,30.09,NW,323,1.0,3.0,66,0.00,,,0.00,0,Wunderground v.1.15,2013-08-15 01:07:00,
2013-08-14 21:10:00,63.6,51.6,30.10,North,355,1.0,3.0,65,0.00,,,0.00,0,Wunderground v.1.15,2013-08-15 01:10:00,
2013-08-14 21:11:00,63.7,51.7,30.10,WNW,300,1.0,3.0,65,0.00,,,0.00,0,Wunderground v.1.15,2013-08-15 01:11:00,
2013-08-14 21:13:00,63.7,51.3,30.10,WNW,289,1.0,3.0,64,0.00,,,0.00,0,Wunderground v.1.15,2013-08-15 01:13:00,
2013-08-14 21:15:00,63.7,51.7,30.10,WSW,254,1.0,3.0,65,0.00,,,0.00,0,Wunderground v.1.15,2013-08-15 01:15:00,
2013-08-14 21:19:00,63.7,51.3,30.10,WNW,282,1.0,5.0,64,0.00,,,0.00,0,Wunderground v.1.15,2013-08-15 01:19:00,
2013-08-14 21:20:00,63.7,51.3,30.10,NW,308,1.0,1.0,64,0.00,,,0.00,0,Wunderground v.1.15,2013-08-15 01:20:00,
2013-08-14 21:21:00,63.7,51.3,30.10,WNW,302,1.0,3.0,64,0.00,,,0.00,0,Wunderground v.1.15,2013-08-15 01:21:00,
2013-08-14 21:22:00,63.6,50.8,30.10,WNW,292,1.0,4.0,63,0.00,,,0.00,0,Wunderground v.1.15,2013-08-15 01:22:00,
2013-08-14 21:24:00,63.6,51.2,30.10,NW,317,2.0,4.0,64,0.00,,,0.00,0,Wunderground v.1.15,2013-08-15 01:24:00,
2013-08-14 21:26:00,63.6,51.2,30.10,NW,304,2.0,4.0,64,0.00,,,0.00,0,Wunderground v.1.15,2013-08-15 01:26:00,
2013-08-14 21:29:00,63.5,51.5,30.10,WNW,294,2.0,4.0,65,0.00,,,0.00,0,Wunderground v.1.15,2013-08-15 01:29:00,
2013-08-14 21:30:00,63.5,51.1,30.11,SSW,210,2.0,2.0,64,0.00,,,0.00,0,Wunderground v.1.15,2013-08-15 01:30:00,
2013-08-14 21:31:00,63.4,51.4,30.11,NW,325,2.0,3.0,65,0.00,,,0.00,0,Wunderground v.1.15,2013-08-15 01:31:00,
2013-08-14 21:35:00,63.3,50.9,30.11,NNW,330,2.0,3.0,64,0.00,,,0.00,0,Wunderground v.1.15,2013-08-15 01:35:00,
2013-08-14 21:36:00,63.3,51.3,30.11,NNW,330,1.0,3.0,65,0.00,,,0.00,0,Wunderground v.1.15,2013-08-15 01:36:00,
2013-08-14 21:39:00,63.2,50.8,30.11,NW,319,1.0,3.0,64,0.00,,,0.00,0,Wunderground v.1.15,2013-08-15 01:39:00,
2013-08-14 21:40:00,63.1,50.7,30.11,NNE,30,1.0,3.0,64,0.00,,,0.00,0,Wunderground v.1.15,2013-08-15 01:40:00,
2013-08-14 21:41:00,63.1,50.7,30.11,North,5,1.0,3.0,64,0.00,,,0.00,0,Wunderground v.1.15,2013-08-15 01:41:00,
2013-08-14 21:44:00,63.2,50.4,30.11,NW,304,1.0,3.0,63,0.00,,,0.00,0,Wunderground v.1.15,2013-08-15 01:44:00,
2013-08-14 21:45:00,63.1,50.7,30.11,NW,311,1.0,3.0,64,0.00,,,0.00,0,Wunderground v.1.15,2013-08-15 01:45:00,
2013-08-14 21:46:00,63.1,50.7,30.11,NW,311,1.0,3.0,64,0.00,,,0.00,0,Wunderground v.1.15,2013-08-15 01:46:00,
2013-08-14 21:47:00,63.1,50.3,30.12,NW,311,1.0,3.0,63,0.00,,,0.00,0,Wunderground v.1.15,2013-08-15 01:47:00,
2013-08-14 21:48:00,63.1,50.3,30.12,NW,311,1.0,3.0,63,0.00,,,0.00,0,Wunderground v.1.15,2013-08-15 01:48:00,
2013-08-14 21:50:00,63.1,50.7,30.12,WNW,298,1.0,3.0,64,0.00,,,0.00,0,Wunderground v.1.15,2013-08-15 01:50:00,
2013-08-14 21:53:00,63.0,50.2,30.12,NE,49,0.0,3.0,63,0.00,,,0.00,0,Wunderground v.1.15,2013-08-15 01:53:00,
2013-08-14 21:54:00,62.9,50.1,30.12,NW,305,0.0,3.0,63,0.00,,,0.00,0,Wunderground v.1.15,2013-08-15 01:54:00,
2013-08-14 21:59:00,62.8,50.4,30.12,WNW,294,0.0,3.0,64,0.00,,,0.00,0,Wunderground v.1.15,2013-08-15 01:59:00,
2013-08-14 22:01:00,62.7,50.3,30.12,South,188,0.0,1.0,64,0.00,,,0.00,0,Wunderground v.1.15,2013-08-15 02:01:00,
2013-08-14 22:02:00,62.7,50.3,30.12,South,188,1.0,1.0,64,0.00,,,0.00,0,Wunderground v.1.15,2013-08-15 02:02:00,
2013-08-14 22:04:00,62.6,49.8,30.13,South,188,0.0,2.0,63,0.00,,,0.00,0,Wunderground v.1.15,2013-08-15 02:04:00,
2013-08-14 22:05:00,62.6,50.2,30.13,South,188,0.0,2.0,64,0.00,,,0.00,0,Wunderground v.1.15,2013-08-15 02:05:00,
2013-08-14 22:07:00,62.5,51.0,30.13,SSW,205,1.0,3.0,66,0.00,,,0.00,0,Wunderground v.1.15,2013-08-15 02:07:00,
2013-08-14 22:10:00,62.2,51.1,30.13,SSW,205,1.0,1.0,67,0.00,,,0.00,0,Wunderground v.1.15,2013-08-15 02:10:00,
2013-08-14 22:11:00,62.1,51.4,30.13,SSW,205,1.0,1.0,68,0.00,,,0.00,0,Wunderground v.1.15,2013-08-15 02:11:00,
2013-08-14 22:12:00,62.0,51.3,30.13,SSW,205,1.0,1.0,68,0.00,,,0.00,0,Wunderground v.1.15,2013-08-15 02:12:00,
2013-08-14 22:13:00,61.9,51.2,30.13,South,178,1.0,1.0,68,0.00,,,0.00,0,Wunderground v.1.15,2013-08-15 02:13:00,
2013-08-14 22:17:00,61.7,51.4,30.13,South,178,1.0,1.0,69,0.00,,,0.00,0,Wunderground v.1.15,2013-08-15 02:17:00,
2013-08-14 22:18:00,61.6,51.3,30.13,South,178,1.0,1.0,69,0.00,,,0.00,0,Wunderground v.1.15,2013-08-15 02:18:00,
2013-08-14 22:19:00,61.6,51.3,30.13,South,178,1.0,1.0,69,0.00,,,0.00,0,Wunderground v.1.15,2013-08-15 02:19:00,
2013-08-14 22:21:00,61.5,51.6,30.13,South,178,1.0,1.0,70,0.00,,,0.00,0,Wunderground v.1.15,2013-08-15 02:21:00,
2013-08-14 22:22:00,61.4,51.5,30.13,South,178,1.0,1.0,70,0.00,,,0.00,0,Wunderground v.1.15,2013-08-15 02:22:00,
2013-08-14 22:24:00,61.3,51.8,30.13,South,178,0.0,1.0,71,0.00,,,0.00,0,Wunderground v.1.15,2013-08-15 02:24:00,
2013-08-14 22:26:00,61.1,51.6,30.13,South,178,0.0,1.0,71,0.00,,,0.00,0,Wunderground v.1.15,2013-08-15 02:26:00,
2013-08-14 22:27:00,61.1,51.6,30.13,South,178,0.0,1.0,71,0.00,,,0.00,0,Wunderground v.1.15,2013-08-15 02:27:00,
2013-08-14 22:33:00,60.5,51.0,30.13,South,178,0.0,1.0,71,0.00,,,0.00,0,Wunderground v.1.15,2013-08-15 02:33:00,
2013-08-14 22:35:00,60.4,51.3,30.13,South,178,0.0,1.0,72,0.00,,,0.00,0,Wunderground v.1.15,2013-08-15 02:35:00,
2013-08-14 22:36:00,60.3,51.6,30.13,South,178,0.0,1.0,73,0.00,,,0.00,0,Wunderground v.1.15,2013-08-15 02:36:00,
2013-08-14 22:38:00,60.2,51.5,30.13,South,178,0.0,1.0,73,0.00,,,0.00,0,Wunderground v.1.15,2013-08-15 02:38:00,
2013-08-14 22:42:00,59.9,50.8,30.13,South,178,0.0,1.0,72,0.00,,,0.00,0,Wunderground v.1.15,2013-08-15 02:42:00,
2013-08-14 22:44:00,59.8,50.8,30.13,South,178,0.0,1.0,72,0.00,,,0.00,0,Wunderground v.1.15,2013-08-15 02:44:00,
2013-08-14 22:45:00,59.8,50.8,30.13,South,178,0.0,1.0,72,0.00,,,0.00,0,Wunderground v.1.15,2013-08-15 02:45:00,
2013-08-14 22:47:00,59.6,50.6,30.13,South,178,0.0,1.0,72,0.00,,,0.00,0,Wunderground v.1.15,2013-08-15 02:47:00,
2013-08-14 22:51:00,59.5,50.5,30.13,South,178,0.0,1.0,72,0.00,,,0.00,0,Wunderground v.1.15,2013-08-15 02:51:00,
2013-08-14 22:52:00,59.5,50.5,30.13,South,178,0.0,1.0,72,0.00,,,0.00,0,Wunderground v.1.15,2013-08-15 02:52:00,
2013-08-14 22:55:00,59.4,50.7,30.13,South,178,0.0,1.0,73,0.00,,,0.00,0,Wunderground v.1.15,2013-08-15 02:55:00,
2013-08-14 22:56:00,59.4,50.7,30.13,South,178,0.0,1.0,73,0.00,,,0.00,0,Wunderground v.1.15,2013-08-15 02:56:00,
2013-08-14 22:59:00,59.3,50.6,30.13,South,178,0.0,1.0,73,0.00,,,0.00,0,Wunderground v.1.15,2013-08-15 02:59:00,
2013-08-14 23:00:00,59.3,50.6,30.13,South,178,0.0,0.0,73,0.00,,,0.00,0,Wunderground v.1.15,2013-08-15 03:00:00,
2013-08-14 23:01:00,59.3,50.6,30.13,South,178,0.0,0.0,73,0.00,,,0.00,0,Wunderground v.1.15,2013-08-15 03:01:00,
2013-08-14 23:04:00,59.2,50.5,30.13,South,178,0.0,0.0,73,0.00,,,0.00,0,Wunderground v.1.15,2013-08-15 03:04:00,
2013-08-14 23:05:00,59.2,50.5,30.13,South,178,0.0,0.0,73,0.00,,,0.00,0,Wunderground v.1.15,2013-08-15 03:05:00,
2013-08-14 23:07:00,59.1,50.5,30.13,South,178,0.0,0.0,73,0.00,,,0.00,0,Wunderground v.1.15,2013-08-15 03:07:00,
2013-08-14 23:08:00,59.1,50.5,30.13,South,178,0.0,0.0,73,0.00,,,0.00,0,Wunderground v.1.15,2013-08-15 03:08:00,
2013-08-14 23:09:00,59.1,50.5,30.13,South,178,0.0,0.0,73,0.00,,,0.00,0,Wunderground v.1.15,2013-08-15 03:09:00,
2013-08-14 23:12:00,59.0,50.7,30.13,South,178,0.0,0.0,74,0.00,,,0.00,0,Wunderground v.1.15,2013-08-15 03:12:00,
2013-08-14 23:15:00,59.0,50.7,30.13,South,178,0.0,0.0,74,0.00,,,0.00,0,Wunderground v.1.15,2013-08-15 03:15:00,
2013-08-14 23:16:00,58.9,50.6,30.13,South,178,0.0,0.0,74,0.00,,,0.00,0,Wunderground v.1.15,2013-08-15 03:16:00,
2013-08-14 23:18:00,58.8,50.9,30.13,South,178,0.0,0.0,75,0.00,,,0.00,0,Wunderground v.1.15,2013-08-15 03:18:00,
2013-08-14 23:20:00,58.7,50.8,30.13,South,178,0.0,0.0,75,0.00,,,0.00,0,Wunderground v.1.15,2013-08-15 03:20:00,
2013-08-14 23:21:00,58.6,50.7,30.13,South,178,0.0,0.0,75,0.00,,,0.00,0,Wunderground v.1.15,2013-08-15 03:21:00,
2013-08-14 23:23:00,58.5,50.6,30.13,South,178,0.0,0.0,75,0.00,,,0.00,0,Wunderground v.1.15,2013-08-15 03:23:00,
2013-08-14 23:26:00,58.3,50.8,30.13,South,178,0.0,1.0,76,0.00,,,0.00,0,Wunderground v.1.15,2013-08-15 03:26:00,
2013-08-14 23:27:00,58.2,50.7,30.14,South,178,0.0,1.0,76,0.00,,,0.00,0,Wunderground v.1.15,2013-08-15 03:27:00,
2013-08-14 23:30:00,58.0,50.8,30.14,South,178,0.0,0.0,77,0.00,,,0.00,0,Wunderground v.1.15,2013-08-15 03:30:00,
2013-08-14 23:33:00,57.8,50.6,30.14,South,178,0.0,1.0,77,0.00,,,0.00,0,Wunderground v.1.15,2013-08-15 03:33:00,
2013-08-14 23:35:00,57.8,50.6,30.14,South,178,0.0,1.0,77,0.00,,,0.00,0,Wunderground v.1.15,2013-08-15 03:35:00,
2013-08-14 23:37:00,57.7,50.5,30.14,South,178,0.0,1.0,77,0.00,,,0.00,0,Wunderground v.1.15,2013-08-15 03:37:00,
2013-08-14 23:40:00,57.5,50.7,30.14,South,178,0.0,0.0,78,0.00,,,0.00,0,Wunderground v.1.15,2013-08-15 03:40:00,
2013-08-14 23:41:00,57.5,50.7,30.14,South,178,0.0,0.0,78,0.00,,,0.00,0,Wunderground v.1.15,2013-08-15 03:41:00,
2013-08-14 23:43:00,57.5,50.7,30.14,South,178,0.0,0.0,78,0.00,,,0.00,0,Wunderground v.1.15,2013-08-15 03:43:00,
2013-08-14 23:45:00,57.4,50.6,30.14,SW,225,0.0,1.0,78,0.00,,,0.00,0,Wunderground v.1.15,2013-08-15 03:45:00,
2013-08-14 23:46:00,57.3,50.5,30.14,West,279,0.0,1.0,78,0.00,,,0.00,0,Wunderground v.1.15,2013-08-15 03:46:00,
2013-08-14 23:47:00,57.3,50.5,30.14,West,279,0.0,1.0,78,0.00,,,0.00,0,Wunderground v.1.15,2013-08-15 03:47:00,
2013-08-14 23:51:00,57.2,50.4,30.14,West,279,0.0,0.0,78,0.00,,,0.00,0,Wunderground v.1.15,2013-08-15 03:51:00,
2013-08-14 23:53:00,57.1,50.3,30.14,West,279,0.0,0.0,78,0.00,,,0.00,0,Wunderground v.1.15,2013-08-15 03:53:00,
2013-08-14 23:57:00,57.0,50.2,30.14,West,279,0.0,1.0,78,0.00,,,0.00,0,Wunderground v.1.15,2013-08-15 03:57:00,
2013-08-14 23:59:00,56.9,50.1,30.14,West,279,0.0,1.0,78,0.00,,,0.00,0,Wunderground v.1.15,2013-08-15 03:59:00,